LiveATC.Net - Listen to live air traffic control over the Internet!
Airport/ARTCC Code
Frequency Search
(e.g., 124.400, 128.75)
Site-wide search
 


Browse Feeds
Top 50 Feeds
Coverage Map
Bad Weather Areas

LiveATC FAQ
Offer LiveATC feed
Contact LiveATC.net
Press Inquiries

LiveATC on iPhone
LiveATC on Android

Windows Phone
Windows 8/10

LiveATC Mobile
(Mobile browser)

ATC Audio Archives
Interesting Recordings

LiveATC Forums

Home Page
About LiveATC.net
Make a Donation
Terms of Use
Privacy Policy

Canadian Air Freqs

AIRMETs/SIGMETs

FAA Airport Status
Nat'l Airspace Status
Arrival Demand Charts


Server Software By:
Icecast.org
Liquidsoap

Select an area of interest:
U.S. Feeds: Class B Airports | Class C Airports | Class D/Other Airports | ARTCC (Centers)
International Feeds: Canada | Europe | Oceania | Asia | South America | North/Central America | Africa
Misc Feeds: HF Feeds
Search by ICAO/IATA airport code:   (e.g., kbos, kjfk, lax, eham, etc.)


Currently Available Live Feeds: 2604
Status Updated: Wed Apr 01 2020 02:22:04 UTC


NOTICE

Unauthorized use prohibited. See LiveATC.net Terms of Service

Europe Airport Feeds

 

EFKU Tower/Approach (Archives)
Siilinjarvi, Finland

Feed Status: UP
Listen in your browser - HTML5 player(in browser, HTML5)
Click here to listen with your own player(launches your MP3 player)

EFKU 010150Z AUTO 25010KT CAVOK M01/M02 Q0990

EFKU Flight Activity (Flightaware)

Listeners: 2 out of 685 total

Kuopio Approach: 130.600
Kuopio Tower: 120.150

Dutch Mil Radar (Archives)
Amsterdam, Netherlands

Feed Status: UP
Listen in your browser - HTML5 player(in browser, HTML5)
Click here to listen with your own player(launches your MP3 player)

EHLE 010155Z AUTO VRB02KT 9999 NCD M02/M04 Q1026

EHLE Flight Activity (Flightaware)

Listeners: 0 out of 685 total

Dutch Mil Flight Info: 264.325
Dutch Mil Radar: 128.355
Dutch Mil Radar: 132.350

EHAA Radar ARTIP (Archives)
Amsterdam, Netherlands

Feed Status: UP
Listen in your browser - HTML5 player(in browser, HTML5)
Click here to listen with your own player(launches your MP3 player)

EHAM 010155Z 31003KT 9999 MIFG NSC M01/M02 Q1026 NOSIG

EHAM Flight Activity (Flightaware)

Listeners: 0 out of 685 total

EHAA Radar Sector 1 ARTIP: 120.550

EHAA Radar East Inbound (Archives)
Amsterdam, Netherlands

Feed Status: UP
Listen in your browser - HTML5 player(in browser, HTML5)
Click here to listen with your own player(launches your MP3 player)

EHAM 010155Z 31003KT 9999 MIFG NSC M01/M02 Q1026 NOSIG

EHAM Flight Activity (Flightaware)

Listeners: 1 out of 685 total

EHAA Radar Sector 2 East Inbound: 128.575

EHAA Radar East Outbound (Archives)
Amsterdam, Netherlands

Feed Status: UP
Listen in your browser - HTML5 player(in browser, HTML5)
Click here to listen with your own player(launches your MP3 player)

EHAM 010155Z 31003KT 9999 MIFG NSC M01/M02 Q1026 NOSIG

EHAM Flight Activity (Flightaware)

Listeners: 0 out of 685 total

EHAA Radar Sector 2 East Outbound: 124.875

EHAA Radar North (Archives)
Amsterdam, Netherlands

Feed Status: UP
Listen in your browser - HTML5 player(in browser, HTML5)
Click here to listen with your own player(launches your MP3 player)

EHAM 010155Z 31003KT 9999 MIFG NSC M01/M02 Q1026 NOSIG

EHAM Flight Activity (Flightaware)

Listeners: 0 out of 685 total

EHAA Radar Sector 1 North: 134.375

EHAA Radar Northwest (Archives)
Amsterdam, Netherlands

Feed Status: UP
Listen in your browser - HTML5 player(in browser, HTML5)
Click here to listen with your own player(launches your MP3 player)

EHAM 010155Z 31003KT 9999 MIFG NSC M01/M02 Q1026 NOSIG

EHAM Flight Activity (Flightaware)

Listeners: 0 out of 685 total

EHAA Radar Sector 5 Northwest: 123.7000

EHAA Radar RIVER (Archives)
Amsterdam, Netherlands

Feed Status: UP
Listen in your browser - HTML5 player(in browser, HTML5)
Click here to listen with your own player(launches your MP3 player)

EHAM 010155Z 31003KT 9999 MIFG NSC M01/M02 Q1026 NOSIG

EHAM Flight Activity (Flightaware)

Listeners: 0 out of 685 total

EHAA Radar Sector 3 RIVER: 130.950

EHAA Radar South (Archives)
Amsterdam, Netherlands

Feed Status: UP
Listen in your browser - HTML5 player(in browser, HTML5)
Click here to listen with your own player(launches your MP3 player)

EHAM 010155Z 31003KT 9999 MIFG NSC M01/M02 Q1026 NOSIG

EHAM Flight Activity (Flightaware)

Listeners: 0 out of 685 total

EHAA Radar Sector 3 South: 123.850

EHAA Radar South (Backup) (Archives)
Amsterdam, Netherlands

Feed Status: UP
Listen in your browser - HTML5 player(in browser, HTML5)
Click here to listen with your own player(launches your MP3 player)

EHAM 010155Z 31003KT 9999 MIFG NSC M01/M02 Q1026 NOSIG

EHAM Flight Activity (Flightaware)

Listeners: 0 out of 685 total

EHAA Radar Sector 3 South Backup : 127.775

EHAA Radar Southwest (Archives)
Amsterdam, Netherlands

Feed Status: UP
Listen in your browser - HTML5 player(in browser, HTML5)
Click here to listen with your own player(launches your MP3 player)

EHAM 010155Z 31003KT 9999 MIFG NSC M01/M02 Q1026 NOSIG

EHAM Flight Activity (Flightaware)

Listeners: 0 out of 685 total

EHAA Radar Sector 4 Southwest: 125.750

EHAA Radar SUGOL (Archives)
Amsterdam, Netherlands

Feed Status: UP
Listen in your browser - HTML5 player(in browser, HTML5)
Click here to listen with your own player(launches your MP3 player)

EHAM 010155Z 31003KT 9999 MIFG NSC M01/M02 Q1026 NOSIG

EHAM Flight Activity (Flightaware)

Listeners: 0 out of 685 total

EHAA Radar Sector 5 SUGOL: 118.800

EHAM Airside Ops Mgr (AOM) (Archives)
Amsterdam, Netherlands

Feed Status: UP
Listen in your browser - HTML5 player(in browser, HTML5)
Click here to listen with your own player(launches your MP3 player)

EHAM 010155Z 31003KT 9999 MIFG NSC M01/M02 Q1026 NOSIG

EHAM Flight Activity (Flightaware)

Listeners: 0 out of 685 total

Schiphol Airside Operations Manager: 130.475

EHAM App/Dep Backup (Archives)
Amsterdam, Netherlands

Feed Status: UP
Listen in your browser - HTML5 player(in browser, HTML5)
Click here to listen with your own player(launches your MP3 player)

EHAM 010155Z 31003KT 9999 MIFG NSC M01/M02 Q1026 NOSIG

EHAM Flight Activity (Flightaware)

Listeners: 0 out of 685 total

Schiphol App/Dep Backup: 118.075

EHAM App/Dep TMA East (Archives)
Amsterdam, Netherlands

Feed Status: UP
Listen in your browser - HTML5 player(in browser, HTML5)
Click here to listen with your own player(launches your MP3 player)

EHAM 010155Z 31003KT 9999 MIFG NSC M01/M02 Q1026 NOSIG

EHAM Flight Activity (Flightaware)

Listeners: 0 out of 691 total

Amsterdam Approach/Departure TMA East: 119.055

EHAM App/Dep TMA West (Archives)
Amsterdam, Netherlands

Feed Status: UP
Listen in your browser - HTML5 player(in browser, HTML5)
Click here to listen with your own player(launches your MP3 player)

EHAM 010155Z 31003KT 9999 MIFG NSC M01/M02 Q1026 NOSIG

EHAM Flight Activity (Flightaware)

Listeners: 0 out of 691 total

Amsterdam Approach/Departure TMA West: 121.200

EHAM Apron (North) (Archives)
Amsterdam, Netherlands

Feed Status: UP
Listen in your browser - HTML5 player(in browser, HTML5)
Click here to listen with your own player(launches your MP3 player)

EHAM 010155Z 31003KT 9999 MIFG NSC M01/M02 Q1026 NOSIG

EHAM Flight Activity (Flightaware)

Listeners: 0 out of 691 total

Schiphol Apron (North): 121.880

EHAM Apron (South) (Archives)
Amsterdam, Netherlands

Feed Status: UP
Listen in your browser - HTML5 player(in browser, HTML5)
Click here to listen with your own player(launches your MP3 player)

EHAM 010155Z 31003KT 9999 MIFG NSC M01/M02 Q1026 NOSIG

EHAM Flight Activity (Flightaware)

Listeners: 0 out of 691 total

Schiphol Apron (South): 121.780

EHAM Arrival (Primary) (Archives)
Amsterdam, Netherlands

Feed Status: UP
Listen in your browser - HTML5 player(in browser, HTML5)
Click here to listen with your own player(launches your MP3 player)

EHAM 010155Z 31003KT 9999 MIFG NSC M01/M02 Q1026 NOSIG

EHAM Flight Activity (Flightaware)

Listeners: 0 out of 691 total

Amsterdam Arrival : 118.400

EHAM Arrival (Secondary) (Archives)
Amsterdam, Netherlands

Feed Status: UP
Listen in your browser - HTML5 player(in browser, HTML5)
Click here to listen with your own player(launches your MP3 player)

EHAM 010155Z 31003KT 9999 MIFG NSC M01/M02 Q1026 NOSIG

EHAM Flight Activity (Flightaware)

Listeners: 0 out of 691 total

Amsterdam Arrival (Secondary): 131.150

EHAM Arrival (Secondary/Backup) (Archives)
Amsterdam, Netherlands

Feed Status: UP
Listen in your browser - HTML5 player(in browser, HTML5)
Click here to listen with your own player(launches your MP3 player)

EHAM 010155Z 31003KT 9999 MIFG NSC M01/M02 Q1026 NOSIG

EHAM Flight Activity (Flightaware)

Listeners: 0 out of 691 total

Amsterdam Arrival (Secondary Backup): 131.275

EHAM Arrival Backup/Discrete (Archives)
Amsterdam, Netherlands

Feed Status: UP
Listen in your browser - HTML5 player(in browser, HTML5)
Click here to listen with your own player(launches your MP3 player)

EHAM 010155Z 31003KT 9999 MIFG NSC M01/M02 Q1026 NOSIG

EHAM Flight Activity (Flightaware)

Listeners: 0 out of 691 total

Schiphol Arrival Backup: 126.675

EHAM Clearance Delivery (Archives)
Amsterdam, Netherlands

Feed Status: UP
Listen in your browser - HTML5 player(in browser, HTML5)
Click here to listen with your own player(launches your MP3 player)

EHAM 010155Z 31003KT 9999 MIFG NSC M01/M02 Q1026 NOSIG

EHAM Flight Activity (Flightaware)

Listeners: 0 out of 691 total

Schiphol Clearance Delivery: 121.980

EHAM Ground (Backup) (Archives)
Amsterdam, Netherlands

Feed Status: UP
Listen in your browser - HTML5 player(in browser, HTML5)
Click here to listen with your own player(launches your MP3 player)

EHAM 010155Z 31003KT 9999 MIFG NSC M01/M02 Q1026 NOSIG

EHAM Flight Activity (Flightaware)

Listeners: 0 out of 691 total

Schiphol Ground (Backup): 122.425

EHAM Ground (North) (Archives)
Amsterdam, Netherlands

Feed Status: UP
Listen in your browser - HTML5 player(in browser, HTML5)
Click here to listen with your own player(launches your MP3 player)

EHAM 010155Z 31003KT 9999 MIFG NSC M01/M02 Q1026 NOSIG

EHAM Flight Activity (Flightaware)

Listeners: 0 out of 691 total

Schiphol Ground (North): 121.805

EHAM Ground (South) (Archives)
Amsterdam, Netherlands

Feed Status: UP
Listen in your browser - HTML5 player(in browser, HTML5)
Click here to listen with your own player(launches your MP3 player)

EHAM 010155Z 31003KT 9999 MIFG NSC M01/M02 Q1026 NOSIG

EHAM Flight Activity (Flightaware)

Listeners: 0 out of 691 total

Schiphol Ground (South): 121.705

EHAM Ground (West) (Archives)
Amsterdam, Netherlands

Feed Status: UP
Listen in your browser - HTML5 player(in browser, HTML5)
Click here to listen with your own player(launches your MP3 player)

EHAM 010155Z 31003KT 9999 MIFG NSC M01/M02 Q1026 NOSIG

EHAM Flight Activity (Flightaware)

Listeners: 0 out of 691 total

Schiphol Ground (West): 121.560

EHAM Info North Sea (North) (Archives)
Amsterdam, Netherlands

Feed Status: UP
Listen in your browser - HTML5 player(in browser, HTML5)
Click here to listen with your own player(launches your MP3 player)

EHAM 010155Z 31003KT 9999 MIFG NSC M01/M02 Q1026 NOSIG

EHAM Flight Activity (Flightaware)

Listeners: 0 out of 691 total

Amsterdam Info North Sea (North): 119.175

EHAM Info North Sea (Over Land) (Archives)
Amsterdam, Netherlands

Feed Status: UP
Listen in your browser - HTML5 player(in browser, HTML5)
Click here to listen with your own player(launches your MP3 player)

EHAM 010155Z 31003KT 9999 MIFG NSC M01/M02 Q1026 NOSIG

EHAM Flight Activity (Flightaware)

Listeners: 0 out of 691 total

Amsterdam Info North Sea (Over Land): 124.300

EHAM Info North Sea (South) (Archives)
Amsterdam, Netherlands

Feed Status: UP
Listen in your browser - HTML5 player(in browser, HTML5)
Click here to listen with your own player(launches your MP3 player)

EHAM 010155Z 31003KT 9999 MIFG NSC M01/M02 Q1026 NOSIG

EHAM Flight Activity (Flightaware)

Listeners: 0 out of 691 total

Amsterdam Info North Sea (South): 136.650

EHAM Ops
Amsterdam, Netherlands

Feed Status: DOWN
Offline since: 2020-03-16 09:18:38 UTC

EHAM 010155Z 31003KT 9999 MIFG NSC M01/M02 Q1026 NOSIG

Schiphol Ops 1: 465.770
Schiphol Ops 2: 466.470
Schiphol Runway Ops: 447.175

EHAM Schiphol Outbound Planner (Archives)
Amsterdam, Netherlands

Feed Status: UP
Listen in your browser - HTML5 player(in browser, HTML5)
Click here to listen with your own player(launches your MP3 player)

EHAM 010155Z 31003KT 9999 MIFG NSC M01/M02 Q1026 NOSIG

EHAM Flight Activity (Flightaware)

Listeners: 0 out of 691 total

Schiphol Outbound Planner: 121.655

EHAM Tow Traffic (Archives)
Amsterdam, Netherlands

Feed Status: UP
Listen in your browser - HTML5 player(in browser, HTML5)
Click here to listen with your own player(launches your MP3 player)

EHAM 010155Z 31003KT 9999 MIFG NSC M01/M02 Q1026 NOSIG

EHAM Flight Activity (Flightaware)

Listeners: 0 out of 691 total

Schiphol Tow Traffic: 134.875

EHAM Tower (06/24) (Archives)
Amsterdam, Netherlands

Feed Status: UP
Listen in your browser - HTML5 player(in browser, HTML5)
Click here to listen with your own player(launches your MP3 player)

EHAM 010155Z 31003KT 9999 MIFG NSC M01/M02 Q1026 NOSIG

EHAM Flight Activity (Flightaware)

Listeners: 0 out of 691 total

Schiphol Tower Main 06/24: 118.950

EHAM Tower (18C/36C-27/09) (Archives)
Amsterdam, Netherlands

Feed Status: UP
Listen in your browser - HTML5 player(in browser, HTML5)
Click here to listen with your own player(launches your MP3 player)

EHAM 010155Z 31003KT 9999 MIFG NSC M01/M02 Q1026 NOSIG

EHAM Flight Activity (Flightaware)

Listeners: 1 out of 691 total

Schiphol Tower Main 18C/36C - 27/09: 118.100

EHAM Tower (18L/36R-22/04) (Archives)
Amsterdam, Netherlands

Feed Status: UP
Listen in your browser - HTML5 player(in browser, HTML5)
Click here to listen with your own player(launches your MP3 player)

EHAM 010155Z 31003KT 9999 MIFG NSC M01/M02 Q1026 NOSIG

EHAM Flight Activity (Flightaware)

Listeners: 0 out of 691 total

Schiphol Tower Main 18L/36R - 22/04: 119.225

EHAM Tower Backup (Archives)
Amsterdam, Netherlands

Feed Status: UP
Listen in your browser - HTML5 player(in browser, HTML5)
Click here to listen with your own player(launches your MP3 player)

EHAM 010155Z 31003KT 9999 MIFG NSC M01/M02 Q1026 NOSIG

EHAM Flight Activity (Flightaware)

Listeners: 0 out of 691 total

Schiphol Tower Backup: 119.905

EHAM Tower West (18R/36L) (Archives)
Amsterdam, Netherlands

Feed Status: UP
Listen in your browser - HTML5 player(in browser, HTML5)
Click here to listen with your own player(launches your MP3 player)

EHAM 010155Z 31003KT 9999 MIFG NSC M01/M02 Q1026 NOSIG

EHAM Flight Activity (Flightaware)

Listeners: 0 out of 691 total

Schiphol Tower West 18R/36L: 118.280

EHBK ATIS (Archives)
Beek, Netherlands

Feed Status: UP
Listen in your browser - HTML5 player(in browser, HTML5)
Click here to listen with your own player(launches your MP3 player)

EHBK 010155Z AUTO 01003KT 330V030 9999 NCD M00/M04 Q1025

EHBK Flight Activity (Flightaware)

Listeners: 0 out of 691 total

Beek ATIS: 124.575

EHBK Gnd/Twr/App (Archives)
Beek, Netherlands

Feed Status: UP
Listen in your browser - HTML5 player(in browser, HTML5)
Click here to listen with your own player(launches your MP3 player)

EHBK 010155Z AUTO 01003KT 330V030 9999 NCD M00/M04 Q1025

EHBK Flight Activity (Flightaware)

Listeners: 0 out of 691 total

Beek Approach: 120.200
Beek Approach: 123.975
Beek Ground: 121.825
Beek Tower: 119.475
Beek Tower: 119.700

MUAC/Eurocontrol Delta High (Archives)
Beek, Netherlands

Feed Status: UP
Listen in your browser - HTML5 player(in browser, HTML5)
Click here to listen with your own player(launches your MP3 player)

EHBK 010155Z AUTO 01003KT 330V030 9999 NCD M00/M04 Q1025

EHBK Flight Activity (Flightaware)

Listeners: 0 out of 691 total

MUAC Delta High Sector: 132.085

MUAC/Eurocontrol Koksy (Archives)
Beek, Netherlands

Feed Status: UP
Listen in your browser - HTML5 player(in browser, HTML5)
Click here to listen with your own player(launches your MP3 player)

EHBK 010155Z AUTO 01003KT 330V030 9999 NCD M00/M04 Q1025

EHBK Flight Activity (Flightaware)

Listeners: 0 out of 691 total

MUAC Koksy Sector: 132.205

MUAC/Eurocontrol Koksy High (Archives)
Beek, Netherlands

Feed Status: UP
Listen in your browser - HTML5 player(in browser, HTML5)
Click here to listen with your own player(launches your MP3 player)

EHBK 010155Z AUTO 01003KT 330V030 9999 NCD M00/M04 Q1025

EHBK Flight Activity (Flightaware)

Listeners: 0 out of 691 total

MUAC Koksy High Sector: 132.755

MUAC/Eurocontrol Lux High (Archives)
Beek, Netherlands

Feed Status: UP
Listen in your browser - HTML5 player(in browser, HTML5)
Click here to listen with your own player(launches your MP3 player)

EHBK 010155Z AUTO 01003KT 330V030 9999 NCD M00/M04 Q1025

EHBK Flight Activity (Flightaware)

Listeners: 0 out of 691 total

MUAC Lux High Sector: 132.315

MUAC/Eurocontrol Lux Low (Archives)
Beek, Netherlands

Feed Status: UP
Listen in your browser - HTML5 player(in browser, HTML5)
Click here to listen with your own player(launches your MP3 player)

EHBK 010155Z AUTO 01003KT 330V030 9999 NCD M00/M04 Q1025

EHBK Flight Activity (Flightaware)

Listeners: 0 out of 691 total

MUAC Lux Low Sector: 133.355

MUAC/Eurocontrol Olno Low (Archives)
Beek, Netherlands

Feed Status: UP
Listen in your browser - HTML5 player(in browser, HTML5)
Click here to listen with your own player(launches your MP3 player)

EHBK 010155Z AUTO 01003KT 330V030 9999 NCD M00/M04 Q1025

EHBK Flight Activity (Flightaware)

Listeners: 0 out of 691 total

MUAC Olno Low Sector: 132.855

MUAC/Eurocontrol Ruhr (Archives)
Beek, Netherlands

Feed Status: UP
Listen in your browser - HTML5 player(in browser, HTML5)
Click here to listen with your own player(launches your MP3 player)

EHBK 010155Z AUTO 01003KT 330V030 9999 NCD M00/M04 Q1025

EHBK Flight Activity (Flightaware)

Listeners: 0 out of 691 total

MUAC Ruhr Sector: 132.515

EHEH Approach #1 (Archives)
Eindhoven, Netherlands

Feed Status: UP
Listen in your browser - HTML5 player(in browser, HTML5)
Click here to listen with your own player(launches your MP3 player)

EHEH 010155Z AUTO 00000KT 9999 NCD M02/M04 Q1026 BLU

EHEH Flight Activity (Flightaware)

Listeners: 0 out of 691 total

DutchMil: 132.530
DutchMil RAPCON South: 379.925
DutchMil RAPCON South: 123.180
Eindhoven Arrival/Director: 124.530

EHEH Approach #2 (Archives)
Eindhoven, Netherlands

Feed Status: UP
Listen in your browser - HTML5 player(in browser, HTML5)
Click here to listen with your own player(launches your MP3 player)

EHEH 010155Z AUTO 00000KT 9999 NCD M02/M04 Q1026 BLU

EHEH Flight Activity (Flightaware)

Listeners: 0 out of 691 total

Eindhoven Approach/Arrival: 124.530
Eindhoven Approach/Arrival: 132.530
Eindhoven Approach/Arrival: 278.050

EHEH Ground (Archives)
Eindhoven, Netherlands

Feed Status: UP
Listen in your browser - HTML5 player(in browser, HTML5)
Click here to listen with your own player(launches your MP3 player)

EHEH 010155Z AUTO 00000KT 9999 NCD M02/M04 Q1026 BLU

EHEH Flight Activity (Flightaware)

Listeners: 0 out of 691 total

Eindhoven Ground: 121.930
Eindhoven Ground: 369.250

EHEH Tower #1 (Archives)
Eindhoven, Netherlands

Feed Status: UP
Listen in your browser - HTML5 player(in browser, HTML5)
Click here to listen with your own player(launches your MP3 player)

EHEH 010155Z AUTO 00000KT 9999 NCD M02/M04 Q1026 BLU

EHEH Flight Activity (Flightaware)

Listeners: 0 out of 691 total

Budel Tower: 122.155
Eindhoven Tower: 131.005
Emergency/Guard: 121.500
Generic Tower: 122.100
Volkel Tower: 372.225
Volkel Tower: 136.080

EHEH Tower #2 (Archives)
Eindhoven, Netherlands

Feed Status: UP
Listen in your browser - HTML5 player(in browser, HTML5)
Click here to listen with your own player(launches your MP3 player)

EHEH 010155Z AUTO 00000KT 9999 NCD M02/M04 Q1026 BLU

EHEH Flight Activity (Flightaware)

Listeners: 0 out of 691 total

Eindhoven Tower: 122.100
Eindhoven Tower: 131.005
Eindhoven Tower: 281.150

EHGG Approach (Archives)
Groningen, Netherlands

Feed Status: UP
Listen in your browser - HTML5 player(in browser, HTML5)
Click here to listen with your own player(launches your MP3 player)

EHGG 010155Z AUTO 23006KT 9999 OVC030 00/M02 Q1025

EHGG Flight Activity (Flightaware)

Listeners: 0 out of 691 total

Eelde Approach: 120.305

EHGG ATIS (Archives)
Groningen, Netherlands

Feed Status: UP
Listen in your browser - HTML5 player(in browser, HTML5)
Click here to listen with your own player(launches your MP3 player)

EHGG 010155Z AUTO 23006KT 9999 OVC030 00/M02 Q1025

EHGG Flight Activity (Flightaware)

Listeners: 0 out of 691 total

Groningen ATIS: 133.555

EHGG Ground (Archives)
Groningen, Netherlands

Feed Status: UP
Listen in your browser - HTML5 player(in browser, HTML5)
Click here to listen with your own player(launches your MP3 player)

EHGG 010155Z AUTO 23006KT 9999 OVC030 00/M02 Q1025

EHGG Flight Activity (Flightaware)

Listeners: 0 out of 691 total

Eelde Clearance Delivery/Ground: 121.705

EHGG Guard/Emergency (Archives)
Groningen, Netherlands

Feed Status: UP
Listen in your browser - HTML5 player(in browser, HTML5)
Click here to listen with your own player(launches your MP3 player)

EHGG 010155Z AUTO 23006KT 9999 OVC030 00/M02 Q1025

EHGG Flight Activity (Flightaware)

Listeners: 0 out of 691 total

Emergency/Guard: 121.500

EHGG Tower (Archives)
Groningen, Netherlands

Feed Status: UP
Listen in your browser - HTML5 player(in browser, HTML5)
Click here to listen with your own player(launches your MP3 player)

EHGG 010155Z AUTO 23006KT 9999 OVC030 00/M02 Q1025

EHGG Flight Activity (Flightaware)

Listeners: 1 out of 691 total

Eelde Tower: 118.705

MUAC/Eurocontrol (EHGG Area) (Archives)
Groningen, Netherlands

Feed Status: UP
Listen in your browser - HTML5 player(in browser, HTML5)
Click here to listen with your own player(launches your MP3 player)

EHGG 010155Z AUTO 23006KT 9999 OVC030 00/M02 Q1025

EHGG Flight Activity (Flightaware)

Listeners: 1 out of 691 total

MUAC Holstein High Sector: 132.775
MUAC Holstein Sector: 120.9333
MUAC Javer High Sector: 134.700
MUAC Jever Sector: 136.4666

EHHV CTAF (Archives)
Hilversum, Netherlands

Feed Status: UP
Listen in your browser - HTML5 player(in browser, HTML5)
Click here to listen with your own player(launches your MP3 player)

EHHV Flight Activity (Flightaware)

Listeners: 0 out of 691 total

Hilversum Radio: 131.025

Approach/Dutch Mil Radar (Archives)
Lelystad, Netherlands

Feed Status: UP
Listen in your browser - HTML5 player(in browser, HTML5)
Click here to listen with your own player(launches your MP3 player)

EHLE 010155Z AUTO VRB02KT 9999 NCD M02/M04 Q1026

EHLE Flight Activity (Flightaware)

Listeners: 0 out of 691 total

Dutch Mil Flight Info: 264.325
Dutch Mil Radar: 128.355
Dutch Mil Radar: 132.350

EHLE Tower (Archives)
Lelystad, Netherlands

Feed Status: UP
Listen in your browser - HTML5 player(in browser, HTML5)
Click here to listen with your own player(launches your MP3 player)

EHLE 010155Z AUTO VRB02KT 9999 NCD M02/M04 Q1026

EHLE Flight Activity (Flightaware)

Listeners: 0 out of 691 total

Lelystad Clearance Delivery: 123.680
Lelystad Tower: 135.180
Lelystad Tower: 123.830

EHMC/EHML Military/Radar (Archives)
Nieuw-Milligen, Netherlands

Feed Status: UP
Listen in your browser - HTML5 player(in browser, HTML5)
Click here to listen with your own player(launches your MP3 player)

EHMC Flight Activity (Flightaware)

Listeners: 0 out of 691 total

AMCC: 234.000
Belga Radar: 129.325
Command Post: 313.550
Dutch Military Radar: 120.825
Dutch Military Radar: 125.925
Dutch Military Radar: 128.350
GCI: 363.100
Lippe Radar: 131.075
London Mil: 135.275
Meteo: 284.425

EHMC/EHML Military/Radar (Archives)
Nieuw-Milligen, Netherlands

Feed Status: UP
Listen in your browser - HTML5 player(in browser, HTML5)
Click here to listen with your own player(launches your MP3 player)

EHMC Flight Activity (Flightaware)

Listeners: 0 out of 691 total

AMCC: 234.000
Belga Radar: 129.325
Command Post: 313.550
Dutch Military Radar: 120.825
Dutch Military Radar: 125.925
Dutch Military Radar: 128.350
GCI: 363.100
Lippe Radar: 131.075
London Mil: 135.275
Meteo: 284.425

EHMM CTAF (Archives)
Middenmeer, Netherlands

Feed Status: UP
Listen in your browser - HTML5 player(in browser, HTML5)
Click here to listen with your own player(launches your MP3 player)

EHMM Flight Activity (Flightaware)

Listeners: 0 out of 691 total

Middenmeer CTAF: 123.425

EHRD Approach (Archives)
Rotterdam, Netherlands

Feed Status: UP
Listen in your browser - HTML5 player(in browser, HTML5)
Click here to listen with your own player(launches your MP3 player)

EHRD 010155Z AUTO 34001KT 9999 NCD M01/M02 Q1026 NOSIG

EHRD Flight Activity (Flightaware)

Listeners: 0 out of 691 total

Rotterdam Approach: 124.535
Rotterdam Approach: 281.050

EHRD Clearance Delivery (Archives)
Rotterdam, Netherlands

Feed Status: UP
Listen in your browser - HTML5 player(in browser, HTML5)
Click here to listen with your own player(launches your MP3 player)

EHRD 010155Z AUTO 34001KT 9999 NCD M01/M02 Q1026 NOSIG

EHRD Flight Activity (Flightaware)

Listeners: 0 out of 691 total

Rotterdam Del/Gnd: 122.180

EHRD Del/Twr (Archives)
Rotterdam, Netherlands

Feed Status: UP
Listen in your browser - HTML5 player(in browser, HTML5)
Click here to listen with your own player(launches your MP3 player)

EHRD 010155Z AUTO 34001KT 9999 NCD M01/M02 Q1026 NOSIG

EHRD Flight Activity (Flightaware)

Listeners: 0 out of 691 total

Rotterdam Del/Gnd: 122.180
Rotterdam Tower: 118.205

EHRD Gnd/Twr/App (Archives)
Rotterdam, Netherlands

Feed Status: UP
Listen in your browser - HTML5 player(in browser, HTML5)
Click here to listen with your own player(launches your MP3 player)

EHRD 010155Z AUTO 34001KT 9999 NCD M01/M02 Q1026 NOSIG

EHRD Flight Activity (Flightaware)

Listeners: 0 out of 691 total

Adam Info: 124.300
Regional Guard: 119.705
Rotterdam Approach: 127.025
Rotterdam Del/Gnd: 122.180
Rotterdam Tower: 118.205
SAR: 123.100
SAR: 282.800

EHRD Tower (Archives)
Rotterdam, Netherlands

Feed Status: UP
Listen in your browser - HTML5 player(in browser, HTML5)
Click here to listen with your own player(launches your MP3 player)

EHRD 010155Z AUTO 34001KT 9999 NCD M01/M02 Q1026 NOSIG

EHRD Flight Activity (Flightaware)

Listeners: 0 out of 691 total

Rotterdam Tower: 118.205
Rotterdam Tower: 362.300

EHRD Twr/App
Rotterdam, Netherlands

Feed Status: DOWN
Offline since: 2020-03-14 14:15:39 UTC

EHRD 010155Z AUTO 34001KT 9999 NCD M01/M02 Q1026 NOSIG

Rotterdam Approach: 127.025
Rotterdam Tower: 118.205

EHTX Gnd/Twr (Archives)
Texel, Netherlands

Feed Status: UP
Listen in your browser - HTML5 player(in browser, HTML5)
Click here to listen with your own player(launches your MP3 player)

EHTX Flight Activity (Flightaware)

Listeners: 0 out of 691 total

Texel Radio (Ground/Tower): 119.300

EHVL CTAF/Range Control (Archives)
Vlieland, Netherlands

Feed Status: UP
Listen in your browser - HTML5 player(in browser, HTML5)
Click here to listen with your own player(launches your MP3 player)

EHVL 010155Z AUTO 28009KT 9999 SCT026 OVC029 06/01 Q1025 BLU

EHVL Flight Activity (Flightaware)

Listeners: 0 out of 691 total

Cornfield VHF (CTAF): 122.100
Range Controller (Primary): 291.650
Range Controller (Secondary): 370.300
Range Controller VHF: 138.075

EICK Approach/Departure (Archives)
Cork, Ireland

Feed Status: UP
Listen in your browser - HTML5 player(in browser, HTML5)
Click here to listen with your own player(launches your MP3 player)

EICK 010130Z 35007KT 9999 BKN038 06/00 Q1030 NOSIG

EICK Flight Activity (Flightaware)

Listeners: 0 out of 691 total

Cork Approach: 119.900

EICK Gnd/Twr/App/Dep (Archives)
Cork, Ireland

Feed Status: UP
Listen in your browser - HTML5 player(in browser, HTML5)
Click here to listen with your own player(launches your MP3 player)

EICK 010130Z 35007KT 9999 BKN038 06/00 Q1030 NOSIG

EICK Flight Activity (Flightaware)

Listeners: 0 out of 691 total

Cork Approach: 119.900
Cork Ground: 121.850
Cork Tower: 119.300

EICK Ground/Tower (Archives)
Cork, Ireland

Feed Status: UP
Listen in your browser - HTML5 player(in browser, HTML5)
Click here to listen with your own player(launches your MP3 player)

EICK 010130Z 35007KT 9999 BKN038 06/00 Q1030 NOSIG

EICK Flight Activity (Flightaware)

Listeners: 0 out of 691 total

Cork Ground: 121.850
Cork Tower: 119.300

EIDW Approach (Archives)
Dublin, Ireland

Feed Status: UP
Listen in your browser - HTML5 player(in browser, HTML5)
Click here to listen with your own player(launches your MP3 player)

EIDW 010130Z 32007KT 9999 FEW025 BKN040 06/01 Q1030 NOSIG

EIDW Flight Activity (Flightaware)

Listeners: 0 out of 691 total

Dublin Approach: 121.100

EIDW Approach (Final) (Archives)
Dublin, Ireland

Feed Status: UP
Listen in your browser - HTML5 player(in browser, HTML5)
Click here to listen with your own player(launches your MP3 player)

EIDW 010130Z 32007KT 9999 FEW025 BKN040 06/01 Q1030 NOSIG

EIDW Flight Activity (Flightaware)

Listeners: 0 out of 691 total

Dublin Approach (Final): 119.925

EIDW Clearance Delivery (Archives)
Dublin, Ireland

Feed Status: UP
Listen in your browser - HTML5 player(in browser, HTML5)
Click here to listen with your own player(launches your MP3 player)

EIDW 010130Z 32007KT 9999 FEW025 BKN040 06/01 Q1030 NOSIG

EIDW Flight Activity (Flightaware)

Listeners: 0 out of 691 total

Dublin Clearance Delivery: 121.875

EIDW Del/Gnd/Twr/App/Center (Archives)
Dublin, Ireland

Feed Status: UP
Listen in your browser - HTML5 player(in browser, HTML5)
Click here to listen with your own player(launches your MP3 player)

EIDW 010130Z 32007KT 9999 FEW025 BKN040 06/01 Q1030 NOSIG

EIDW Flight Activity (Flightaware)

Listeners: 3 out of 691 total

Dublin Approach: 121.100
Dublin Approach (backup): 119.550
Dublin Centre North: 129.175
Dublin Centre South: 126.250
Dublin Clearance Delivery: 121.875
Dublin FIS: 118.500
Dublin Ground: 121.800
Dublin Tower: 118.600

EIDW Ground (Archives)
Dublin, Ireland

Feed Status: UP
Listen in your browser - HTML5 player(in browser, HTML5)
Click here to listen with your own player(launches your MP3 player)

EIDW 010130Z 32007KT 9999 FEW025 BKN040 06/01 Q1030 NOSIG

EIDW Flight Activity (Flightaware)

Listeners: 0 out of 691 total

Dublin Ground: 121.800

EIDW Ground (North) (Archives)
Dublin, Ireland

Feed Status: UP
Listen in your browser - HTML5 player(in browser, HTML5)
Click here to listen with your own player(launches your MP3 player)

EIDW 010130Z 32007KT 9999 FEW025 BKN040 06/01 Q1030 NOSIG

EIDW Flight Activity (Flightaware)

Listeners: 4 out of 691 total

Dublin Ground (North): 118.750

EIDW Tower (Archives)
Dublin, Ireland

Feed Status: UP
Listen in your browser - HTML5 player(in browser, HTML5)
Click here to listen with your own player(launches your MP3 player)

EIDW 010130Z 32007KT 9999 FEW025 BKN040 06/01 Q1030 NOSIG

EIDW Flight Activity (Flightaware)

Listeners: 4 out of 691 total

Dublin Tower: 118.600

EIKN Gnd/Twr/App (Archives)
Charlestown, Ireland

Feed Status: UP
Listen in your browser - HTML5 player(in browser, HTML5)
Click here to listen with your own player(launches your MP3 player)

EIKN 301430Z 36016KT 9999 FEW024 BKN036 08/05 Q1040

EIKN Flight Activity (Flightaware)

Listeners: 0 out of 691 total

Connaught Ground: 121.900
Connaught Tower: 130.700
Shannon Low Level: 119.075

EINN Approach/Departure (Archives)
Shannon, Ireland

Feed Status: UP
Listen in your browser - HTML5 player(in browser, HTML5)
Click here to listen with your own player(launches your MP3 player)

EINN 010130Z 34004KT 9999 FEW030 BKN040 06/03 Q1032 NOSIG

EINN Flight Activity (Flightaware)

Listeners: 0 out of 691 total

Shannon Approach Radar: 121.400
Shannon Low: 124.700

EINN Gnd/Twr/Ops (Archives)
Shannon, Ireland

Feed Status: UP
Listen in your browser - HTML5 player(in browser, HTML5)
Click here to listen with your own player(launches your MP3 player)

EINN 010130Z 34004KT 9999 FEW030 BKN040 06/03 Q1032 NOSIG

EINN Flight Activity (Flightaware)

Listeners: 0 out of 691 total

Aer Lingus Ops: 131.500
Service Air Ops: 131.450
Shannon Ground: 121.800
Shannon Tower: 118.700
Sig Ops (Pre-Clearance): 131.590

EINN Shannon Control High #1 (Archives)
Shannon, Ireland

Feed Status: UP
Listen in your browser - HTML5 player(in browser, HTML5)
Click here to listen with your own player(launches your MP3 player)

EINN 010130Z 34004KT 9999 FEW030 BKN040 06/03 Q1032 NOSIG

EINN Flight Activity (Flightaware)

Listeners: 2 out of 691 total

Shannon Clearance (Oceanic only): 121.700
Shannon Control: 134.630
Shannon Control: 134.260
Shannon Control: 119.075
Shannon Control (BABAN/DEVOL Sector): 132.150
Shannon Control (Cork Sector): 131.150
Shannon Control (Shannon Sector): 134.280
Shannon Control (SOTA Sector): 135.600
Shannon Control NOTA: 125.875
Shannon Control NOTA: 122.980
Shannon High Level (SOTA Sector): 135.230
Shanwick Radio: 127.650
Track Information: 133.800

EINN Twr/App #1 (Archives)
Shannon, Ireland

Feed Status: UP
Listen in your browser - HTML5 player(in browser, HTML5)
Click here to listen with your own player(launches your MP3 player)

EINN 010130Z 34004KT 9999 FEW030 BKN040 06/03 Q1032 NOSIG

EINN Flight Activity (Flightaware)

Listeners: 0 out of 691 total

Aer Lingus Ops: 131.500
Service Air Ops: 131.450
Shannon Approach Radar: 121.400
Shannon Control: Misc
Shannon Ground: 121.800
Shannon Tower: 118.700
Sig Ops (Pre-Clearance): 131.590

ENAT Twr/App/Control (Archives)
Alta, Norway

Feed Status: UP
Listen in your browser - HTML5 player(in browser, HTML5)
Click here to listen with your own player(launches your MP3 player)

ENAT 010150Z AUTO 12004KT 040V140 9999 FEW045/// M07/M10 Q0996 RMK WIND 700FT 01015KT

ENAT Flight Activity (Flightaware)

Listeners: 1 out of 691 total

Alta Tower (to boat, Harbour Channel 12): 156.600
Alta Tower (to vehicle): 462.400
Alta Tower/Approach: 120.400
Norway Control: 126.700

ENBO Approach (Archives)
Bodo, Norway

Feed Status: UP
Listen in your browser - HTML5 player(in browser, HTML5)
Click here to listen with your own player(launches your MP3 player)

ENBO 010150Z 33013KT 9999 FEW015 SCT070 01/M04 Q1000

ENBO Flight Activity (Flightaware)

Listeners: 2 out of 691 total

Bodo Approach: 119.700

ENBO Tower (Archives)
Bodo, Norway

Feed Status: UP
Listen in your browser - HTML5 player(in browser, HTML5)
Click here to listen with your own player(launches your MP3 player)

ENBO 010150Z 33013KT 9999 FEW015 SCT070 01/M04 Q1000

ENBO Flight Activity (Flightaware)

Listeners: 1 out of 691 total

Bodo Tower: 118.100

ENCN Tower/Approach (Archives)
Kristiansand, Norway

Feed Status: UP
Listen in your browser - HTML5 player(in browser, HTML5)
Click here to listen with your own player(launches your MP3 player)

ENCN 010150Z AUTO 30006KT 260V330 9999 NCD 05/M00 Q1013

ENCN Flight Activity (Flightaware)

Listeners: 0 out of 691 total

Kjevik Tower: 118.100
Kjevik Tower/Approach: 119.950

ENEV Twr/App/ACC (Archives)
Evenes, Norway

Feed Status: UP
Listen in your browser - HTML5 player(in browser, HTML5)
Click here to listen with your own player(launches your MP3 player)

ENEV 010150Z AUTO 32010KT 9999 FEW027/// BKN048/// M01/M04 Q0999 RMK WIND 1400FT 33016KT

ENEV Flight Activity (Flightaware)

Listeners: 0 out of 691 total

Evenes Approach: 120.100
Evenes Tower: 118.000
Norway ACC (Bodo Sector 25): 126.450

ENGM Approach (Archives)
Oslo, Norway

Feed Status: UP
Listen in your browser - HTML5 player(in browser, HTML5)
Click here to listen with your own player(launches your MP3 player)

ENGM 010150Z 17003KT 140V260 CAVOK 03/M04 Q1008

ENGM Flight Activity (Flightaware)

Listeners: 0 out of 691 total

Oslo Approach: 118.475
Oslo Approach: 120.450

ENGM Tower (Archives)
Oslo, Norway

Feed Status: UP
Listen in your browser - HTML5 player(in browser, HTML5)
Click here to listen with your own player(launches your MP3 player)

ENGM 010150Z 17003KT 140V260 CAVOK 03/M04 Q1008

ENGM Flight Activity (Flightaware)

Listeners: 2 out of 691 total

Oslo Tower (East): 120.100
Oslo Tower (West): 118.300

ENJB CTAF (Archives)
Tonsberg, Norway

Feed Status: UP
Listen in your browser - HTML5 player(in browser, HTML5)
Click here to listen with your own player(launches your MP3 player)

ENTO 010150Z AUTO 28007KT 9999 NCD 04/M03 Q1010

ENTO Flight Activity (Flightaware)

Listeners: 0 out of 691 total

Jarlsberg CTAF: 122.300

ENKJ RDO (Archives)
Kjeller, Norway

Feed Status: UP
Listen in your browser - HTML5 player(in browser, HTML5)
Click here to listen with your own player(launches your MP3 player)

ENKJ Flight Activity (Flightaware)

Listeners: 0 out of 691 total

Kjeller RDO: 119.100

ENLI CTAF (Archives)
Farsund, Norway

Feed Status: UP
Listen in your browser - HTML5 player(in browser, HTML5)
Click here to listen with your own player(launches your MP3 player)

ENLI Flight Activity (Flightaware)

Listeners: 0 out of 691 total

Lista Traffic/Lista Radio: 126.450

ENML Gnd/Twr/App/Center
Molde, Norway

Feed Status: DOWN
Offline since: 2020-03-10 16:29:21 UTC

ENML 010150Z AUTO 02005KT 9999NDV RA SCT008/// BKN010/// BKN016/// 01/00 Q1009

Molde Info: 119.950

ENRK CTAF (Archives)
Astorp, Norway

Feed Status: UP
Listen in your browser - HTML5 player(in browser, HTML5)
Click here to listen with your own player(launches your MP3 player)

ENRK Flight Activity (Flightaware)

Listeners: 0 out of 691 total

Rakkestad CTAF: 122.950

ENOR Sector 8 (Archives)
Moss, Norway

Feed Status: UP
Listen in your browser - HTML5 player(in browser, HTML5)
Click here to listen with your own player(launches your MP3 player)

ENOR Flight Activity (Flightaware)

Listeners: 0 out of 691 total

Norway Center (FIR) Sector 8: 118.875

ENRY Tower (Archives)
Moss, Norway

Feed Status: UP
Listen in your browser - HTML5 player(in browser, HTML5)
Click here to listen with your own player(launches your MP3 player)

ENRY 010150Z AUTO 24007KT 9999NDV NCD 04/M02 Q1010

ENRY Flight Activity (Flightaware)

Listeners: 0 out of 691 total

Rygge Tower: 119.500

ENTC Tower/App (Archives)
Langnes, Norway

Feed Status: UP
Listen in your browser - HTML5 player(in browser, HTML5)
Click here to listen with your own player(launches your MP3 player)

ENTC 010150Z 02009KT 360V060 9999 FEW035 M03/M06 Q0998 RMK WIND 2600FT /////KT

ENTC Flight Activity (Flightaware)

Listeners: 0 out of 691 total

Langnes Tower: 118.300
Langnes VDF (Approach): 123.750

ENTO App/Dep (Archives)
Sandefjord, Norway

Feed Status: UP
Listen in your browser - HTML5 player(in browser, HTML5)
Click here to listen with your own player(launches your MP3 player)

ENTO 010150Z AUTO 28007KT 9999 NCD 04/M03 Q1010

ENTO Flight Activity (Flightaware)

Listeners: 0 out of 691 total

Sandefjord Approach (TMA): 134.050

ENTO Control Sector 4 (Archives)
Sandefjord, Norway

Feed Status: UP
Listen in your browser - HTML5 player(in browser, HTML5)
Click here to listen with your own player(launches your MP3 player)

ENTO 010150Z AUTO 28007KT 9999 NCD 04/M03 Q1010

ENTO Flight Activity (Flightaware)

Listeners: 0 out of 691 total

Norway control Sector 4: 118.875

ENTO Tower (Archives)
Sandefjord, Norway

Feed Status: UP
Listen in your browser - HTML5 player(in browser, HTML5)
Click here to listen with your own player(launches your MP3 player)

ENTO 010150Z AUTO 28007KT 9999 NCD 04/M03 Q1010

ENTO Flight Activity (Flightaware)

Listeners: 0 out of 691 total

Sandefjord Tower: 118.650

ENTO Tower/App (Archives)
Sandefjord, Norway

Feed Status: UP
Listen in your browser - HTML5 player(in browser, HTML5)
Click here to listen with your own player(launches your MP3 player)

ENTO 010150Z AUTO 28007KT 9999 NCD 04/M03 Q1010

ENTO Flight Activity (Flightaware)

Listeners: 0 out of 691 total

ENJB Tonsberg Airport - Jarlsberg - CTAF: 122.300
Farris Approach (TCA): 134.050
Sandefjord Tower: 118.650

ENTO Twr/App (Archives)
Sandefjord, Norway

Feed Status: UP
Listen in your browser - HTML5 player(in browser, HTML5)
Click here to listen with your own player(launches your MP3 player)

ENTO 010150Z AUTO 28007KT 9999 NCD 04/M03 Q1010

ENTO Flight Activity (Flightaware)

Listeners: 0 out of 691 total

Sandefjord Approach (TMA): 134.050
Sandefjord Tower: 118.650

ENVA Gnd/Twr/App (Archives)
Trondheim, Norway

Feed Status: UP
Listen in your browser - HTML5 player(in browser, HTML5)
Click here to listen with your own player(launches your MP3 player)

ENVA 010150Z AUTO 26015KT 9999 BKN024/// BKN040/// OVC053/// 03/M01 Q1007 RMK WIND 670FT 27017KT

ENVA Flight Activity (Flightaware)

Listeners: 1 out of 691 total

Trondheim Approach: 118.600
Trondheim Ground: 121.600
Trondheim Tower: 119.400

ENZV Gnd/Twr/App (Archives)
Stavanger, Norway

Feed Status: UP
Listen in your browser - HTML5 player(in browser, HTML5)
Click here to listen with your own player(launches your MP3 player)

ENZV 010150Z 28009KT 9999 FEW030 BKN050 06/03 Q1016

ENZV Flight Activity (Flightaware)

Listeners: 0 out of 691 total

Sola Approach/Departure: 119.600
Sola Ground: 121.750
Sola Tower: 118.350

EPGD Tower/Approach
Gdansk, Poland

Feed Status: DOWN
Offline since: 2020-04-01 01:45:39 UTC

EPGD 010130Z 25010KT 9999 FEW044 M02/M07 Q1018 R11/290095

Gdansk Approach: 127.275
Gdansk Tower: 118.100

EPKK Tower/App (Archives)
Krakow, Poland

Feed Status: UP
Listen in your browser - HTML5 player(in browser, HTML5)
Click here to listen with your own player(launches your MP3 player)

EPKK 010130Z 20003KT 2000 0800W BCFG BR NSC M03/M03 Q1024

EPKK Flight Activity (Flightaware)

Listeners: 0 out of 691 total

Krakow Approach: 121.075
Krakow Approach: 123.255
Krakow Tower: 123.255

EPKR CTAF (Archives)
Krosno, Poland

Feed Status: UP
Listen in your browser - HTML5 player(in browser, HTML5)
Click here to listen with your own player(launches your MP3 player)

EPKR Flight Activity (Flightaware)

Listeners: 0 out of 691 total

Krosno CTAF: 122.400

EPKT Del/Twr/App (Archives)
Katowice, Poland

Feed Status: UP
Listen in your browser - HTML5 player(in browser, HTML5)
Click here to listen with your own player(launches your MP3 player)

EPKT 010130Z 18002KT 3000 0600NW BCFG BR NSC M07/M07 Q1024

EPKT Flight Activity (Flightaware)

Listeners: 0 out of 691 total

Katowice Delivery: 121.800
Katowice Tower: 129.250
Krakow Approach: 135.400
Krakow Approach: 121.075

EPKT Delivery/Approach (Archives)
Katowice, Poland

Feed Status: UP
Listen in your browser - HTML5 player(in browser, HTML5)
Click here to listen with your own player(launches your MP3 player)

EPKT 010130Z 18002KT 3000 0600NW BCFG BR NSC M07/M07 Q1024

EPKT Flight Activity (Flightaware)

Listeners: 0 out of 691 total

Katowice Delivery: 121.800
Krakow Approach: 121.075

EPKT Tower/Approach (Archives)
Katowice, Poland

Feed Status: UP
Listen in your browser - HTML5 player(in browser, HTML5)
Click here to listen with your own player(launches your MP3 player)

EPKT 010130Z 18002KT 3000 0600NW BCFG BR NSC M07/M07 Q1024

EPKT Flight Activity (Flightaware)

Listeners: 0 out of 691 total

Katowice Tower: 129.250
Krakow Approach: 135.400

EPLL Tower
Lodz, Poland

Feed Status: DOWN
Offline since: 2020-03-31 04:10:03 UTC

EPLL 010130Z 23002KT CAVOK M06/M09 Q1023

Lodz Tower: 124.230

EPML Info
Mielec, Poland

Feed Status: DOWN
Offline since: 2020-03-31 11:17:22 UTC

Mielec Info: 119.105

EPPO Twr/App/FIS (Archives)
Poznan, Poland

Feed Status: UP
Listen in your browser - HTML5 player(in browser, HTML5)
Click here to listen with your own player(launches your MP3 player)

EPPO 010130Z 23005KT CAVOK M03/M07 Q1024

EPPO Flight Activity (Flightaware)

Listeners: 0 out of 691 total

Poznan Approach: 129.025
Poznan Approach: 127.225
Poznan FIS: 126.300
Poznan Tower: 119.975

EPRZ Del/Twr/EPWW Radar (Archives)
Jasionka, Poland

Feed Status: UP
Listen in your browser - HTML5 player(in browser, HTML5)
Click here to listen with your own player(launches your MP3 player)

EPRZ 010130Z 25008KT 6000 NSC M04/M06 Q1024

EPRZ Flight Activity (Flightaware)

Listeners: 1 out of 691 total

EPWW Radar: 134.175
EPWW Radar: 120.950
Rzeszow Delivery: 121.800
Rzeszow Tower: 126.800

EPWA Approach #1 (Archives)
Warsaw, Poland

Feed Status: UP
Listen in your browser - HTML5 player(in browser, HTML5)
Click here to listen with your own player(launches your MP3 player)

EPWA 010130Z 24004KT 210V270 CAVOK M03/M06 Q1023 NOSIG

EPWA Flight Activity (Flightaware)

Listeners: 1 out of 691 total

Warsaw Approach: 128.800

EPWA Approach #2 (Archives)
Warsaw, Poland

Feed Status: UP
Listen in your browser - HTML5 player(in browser, HTML5)
Click here to listen with your own player(launches your MP3 player)

EPWA 010130Z 24004KT 210V270 CAVOK M03/M06 Q1023 NOSIG

EPWA Flight Activity (Flightaware)

Listeners: 0 out of 691 total

Warsaw Approach: 125.050

EPWA Clearance Delivery (Archives)
Warsaw, Poland

Feed Status: UP
Listen in your browser - HTML5 player(in browser, HTML5)
Click here to listen with your own player(launches your MP3 player)

EPWA 010130Z 24004KT 210V270 CAVOK M03/M06 Q1023 NOSIG

EPWA Flight Activity (Flightaware)

Listeners: 0 out of 691 total

Warsaw Clearance Delivery: 121.600

EPWA Director (Archives)
Warsaw, Poland

Feed Status: UP
Listen in your browser - HTML5 player(in browser, HTML5)
Click here to listen with your own player(launches your MP3 player)

EPWA 010130Z 24004KT 210V270 CAVOK M03/M06 Q1023 NOSIG

EPWA Flight Activity (Flightaware)

Listeners: 0 out of 691 total

Warsaw Director: 129.375

EPWA Ground (Archives)
Warsaw, Poland

Feed Status: UP
Listen in your browser - HTML5 player(in browser, HTML5)
Click here to listen with your own player(launches your MP3 player)

EPWA 010130Z 24004KT 210V270 CAVOK M03/M06 Q1023 NOSIG

EPWA Flight Activity (Flightaware)

Listeners: 0 out of 691 total

Warsaw Ground: 121.900

EPWA Tower #1 (Archives)
Warsaw, Poland

Feed Status: UP
Listen in your browser - HTML5 player(in browser, HTML5)
Click here to listen with your own player(launches your MP3 player)

EPWA 010130Z 24004KT 210V270 CAVOK M03/M06 Q1023 NOSIG

EPWA Flight Activity (Flightaware)

Listeners: 0 out of 691 total

Warsaw Tower: 118.300

EPWA Tower #2 (Archives)
Warsaw, Poland

Feed Status: UP
Listen in your browser - HTML5 player(in browser, HTML5)
Click here to listen with your own player(launches your MP3 player)

EPWA 010130Z 24004KT 210V270 CAVOK M03/M06 Q1023 NOSIG

EPWA Flight Activity (Flightaware)

Listeners: 0 out of 691 total

Warsaw Tower: 118.300

EPWR Twr/App (Archives)
Wroclaw, Poland

Feed Status: UP
Listen in your browser - HTML5 player(in browser, HTML5)
Click here to listen with your own player(launches your MP3 player)

EPPO 010130Z 23005KT CAVOK M03/M07 Q1024

EPPO Flight Activity (Flightaware)

Listeners: 1 out of 691 total

Poznan Approach (South): 127.225

EPRZ Del/Twr/EPWW Radar (Archives)
Jasionka, Poland

Feed Status: UP
Listen in your browser - HTML5 player(in browser, HTML5)
Click here to listen with your own player(launches your MP3 player)

EPRZ 010130Z 25008KT 6000 NSC M04/M06 Q1024

EPRZ Flight Activity (Flightaware)

Listeners: 1 out of 691 total

EPWW Radar: 134.175
EPWW Radar: 120.950
Rzeszow Delivery: 121.800
Rzeszow Tower: 126.800

ESDF Gnd/Twr (Archives)
Ronneby, Sweden

Feed Status: UP
Listen in your browser - HTML5 player(in browser, HTML5)
Click here to listen with your own player(launches your MP3 player)

ESDF 010150Z AUTO 24006KT 9999 -SHRA BKN010/// OVC014/// 03/03 Q1014

ESDF Flight Activity (Flightaware)

Listeners: 0 out of 691 total

Ronneby Ground: 121.850
Ronneby Tower: 119.200

ESDF Ronneby Control (Archives)
Ronneby, Sweden

Feed Status: UP
Listen in your browser - HTML5 player(in browser, HTML5)
Click here to listen with your own player(launches your MP3 player)

ESDF 010150Z AUTO 24006KT 9999 -SHRA BKN010/// OVC014/// 03/03 Q1014

ESDF Flight Activity (Flightaware)

Listeners: 0 out of 691 total

Ronneby Control: 128.450

ESMQ Tower (Archives)
Kalmar, Sweden

Feed Status: UP
Listen in your browser - HTML5 player(in browser, HTML5)
Click here to listen with your own player(launches your MP3 player)

ESMQ 010150Z AUTO 25014KT 9999 NCD 05/02 Q1011

ESMQ Flight Activity (Flightaware)

Listeners: 0 out of 691 total

Kalmar Tower: 130.805

ESMS Radar (Archives)
Svedala, Sweden

Feed Status: UP
Listen in your browser - HTML5 player(in browser, HTML5)
Click here to listen with your own player(launches your MP3 player)

ESMS 010150Z 26014KT 9999 BKN009 OVC017 04/03 Q1016 R17/09//95

ESMS Flight Activity (Flightaware)

Listeners: 0 out of 691 total

Sweden Control (Sector L, Malmo): 134.980

ESMS Tower (Archives)
Svedala, Sweden

Feed Status: UP
Listen in your browser - HTML5 player(in browser, HTML5)
Click here to listen with your own player(launches your MP3 player)

ESMS 010150Z 26014KT 9999 BKN009 OVC017 04/03 Q1016 R17/09//95

ESMS Flight Activity (Flightaware)

Listeners: 0 out of 691 total

Malmo Tower: 118.800

ESOW Twr/CTAF/Control (Archives)
Stockholm, Sweden

Feed Status: UP
Listen in your browser - HTML5 player(in browser, HTML5)
Click here to listen with your own player(launches your MP3 player)

ESOW 010150Z AUTO 32009KT 9999 NCD 06/M04 Q1006

ESOW Flight Activity (Flightaware)

Listeners: 0 out of 691 total

Arlanda Approach: 123.750
Arlanda Approach: 126.655
Arlanda Approach: 130.325
Arlanda Departure: 124.100
Arlanda Tower: 118.505
Arlanda Tower: 128.725
Enkoping/Langtora: 123.525
Eskilstuna: 126.850
Frolunda: 123.400
Johannisberg CTAF: 123.650
Ska Edeby: 123.350
Stockholm Control: 120.155
Stockholm Control: 118.405
Stockholm Control: 118.280
Sweden Control: 133.260
Sweden Control: 129.175
Sweden Control: 131.130
Uppsala Tower: 119.200
Uppsala/Sundbro: 123.350
Vasteras Control: 125.955
Vasteras Tower: 130.600

ESPA Twr/Control (Archives)
Lulea, Sweden

Feed Status: UP
Listen in your browser - HTML5 player(in browser, HTML5)
Click here to listen with your own player(launches your MP3 player)

ESPA 010150Z AUTO 33013KT 1200 0900// R14/1200VP2000U R32/1200VP2000N -RASN VV013 M00/M01 Q0991

ESPA Flight Activity (Flightaware)

Listeners: 0 out of 691 total

Emergency/Guard: 121.500
Kallax Control: 125.450
Kallax Tower: 128.200
Sweden Control North: 131.050

ESSG Misc (Archives)
Ludvika, Sweden

Feed Status: UP
Listen in your browser - HTML5 player(in browser, HTML5)
Click here to listen with your own player(launches your MP3 player)

ESSG Flight Activity (Flightaware)

Listeners: 0 out of 691 total

Avesta, Gagnef, Siljansnas: 123.550
Borlange Tower: 127.300
Dala-Jarna: 123.350
Emergency/Guard: 121.500
Karlstad: 119.450
Koping, Arboga, Borberg: 123.150
Ludvika CTAF: 122.100
Mora: 129.850
Orebro: 120.275
Orsa: 123.400
Soaring Freq: 123.500
Sweden Control: 131.125
Sweden Control: 129.175
Sweden Control: 118.200
Sweden Control: 132.150

ESVQ CTAF (Archives)
Koping, Sweden

Feed Status: UP
Listen in your browser - HTML5 player(in browser, HTML5)
Click here to listen with your own player(launches your MP3 player)

ESVQ Flight Activity (Flightaware)

Listeners: 0 out of 691 total

Koping CTAF: 123.150

EVLA AFIS (Archives)
Liepaja, Latvia

Feed Status: UP
Listen in your browser - HTML5 player(in browser, HTML5)
Click here to listen with your own player(launches your MP3 player)

EVLA 010150Z AUTO 26018KT 9999 FEW023/// BKN028/// OVC033/// 05/02 Q1010

EVLA Flight Activity (Flightaware)

Listeners: 0 out of 691 total

Liepaja AFIS: 129.400

EVRA Approach (Archives)
Riga, Latvia

Feed Status: UP
Listen in your browser - HTML5 player(in browser, HTML5)
Click here to listen with your own player(launches your MP3 player)

EVRA 010150Z 21010KT 9999 SCT024 01/M03 Q1008 NOSIG

EVRA Flight Activity (Flightaware)

Listeners: 0 out of 691 total

Riga Approach: 129.925

EVRA Approach (Archives)
Riga, Latvia

Feed Status: UP
Listen in your browser - HTML5 player(in browser, HTML5)
Click here to listen with your own player(launches your MP3 player)

EVLA 010150Z AUTO 26018KT 9999 FEW023/// BKN028/// OVC033/// 05/02 Q1010

EVLA Flight Activity (Flightaware)

Listeners: 0 out of 691 total

Riga Approach: 129.925

EVRA CTAF (Archives)
Riga, Latvia

Feed Status: UP
Listen in your browser - HTML5 player(in browser, HTML5)
Click here to listen with your own player(launches your MP3 player)

EVRA 010150Z 21010KT 9999 SCT024 01/M03 Q1008 NOSIG

EVRA Flight Activity (Flightaware)

Listeners: 0 out of 691 total

Riga Approach (evenings): 134.850
Riga CTAF: 123.950

EVRA FIC (Archives)
Riga, Latvia

Feed Status: UP
Listen in your browser - HTML5 player(in browser, HTML5)
Click here to listen with your own player(launches your MP3 player)

EVRA 010150Z 21010KT 9999 SCT024 01/M03 Q1008 NOSIG

EVRA Flight Activity (Flightaware)

Listeners: 0 out of 691 total

Riga FIC: 120.225

EVRA FIC (Archives)
Riga, Latvia

Feed Status: UP
Listen in your browser - HTML5 player(in browser, HTML5)
Click here to listen with your own player(launches your MP3 player)

EVLA 010150Z AUTO 26018KT 9999 FEW023/// BKN028/// OVC033/// 05/02 Q1010

EVLA Flight Activity (Flightaware)

Listeners: 0 out of 691 total

Riga FIC: 120.225

EVRA Tower/Guard (Archives)
Riga, Latvia

Feed Status: UP
Listen in your browser - HTML5 player(in browser, HTML5)
Click here to listen with your own player(launches your MP3 player)

EVRA 010150Z 21010KT 9999 SCT024 01/M03 Q1008 NOSIG

EVRA Flight Activity (Flightaware)

Listeners: 0 out of 691 total

Emergency/Guard: 121.500
Riga Tower: 118.100

EYPA Tower (Archives)
Palanga, Lithuania

Feed Status: UP
Listen in your browser - HTML5 player(in browser, HTML5)
Click here to listen with your own player(launches your MP3 player)

EVLA 010150Z AUTO 26018KT 9999 FEW023/// BKN028/// OVC033/// 05/02 Q1010

EVLA Flight Activity (Flightaware)

Listeners: 0 out of 691 total

Palanga Tower: 124.300

EYVI Twr/App/Misc (Archives)
Vilnius, Lithuania

Feed Status: UP
Listen in your browser - HTML5 player(in browser, HTML5)
Click here to listen with your own player(launches your MP3 player)

EYVI 010150Z 23009KT CAVOK M02/M06 Q1014 NOSIG

EYVI Flight Activity (Flightaware)

Listeners: 0 out of 691 total

Emergency / GUARD: 121.500
FlyLAL, AirBaltic transit services: 131.900
FlyLAL, AirBaltic transit services: 131.600
FlyLAL, AirBaltic transit services: 131.500
Kaunas Approach (EYKA): 124.200
Vilnius Approach: 120.700
Vilnius Control: 132.275
Vilnius Control: 133.425
Vilnius Control: 133.300
Vilnius FIS: 123.850
Vilnius Tower: 118.200
Zokniai A/G (mil): 122.775

EYVP CTAF (Archives)
Paluknys, Lithuania

Feed Status: UP
Listen in your browser - HTML5 player(in browser, HTML5)
Click here to listen with your own player(launches your MP3 player)

EYVP Flight Activity (Flightaware)

Listeners: 0 out of 691 total

EYVP Paluknis CTAF: 119.100

LBLS Tower/FIC
Lesnovo, Bulgaria

Feed Status: DOWN
Offline since: 2020-03-25 03:38:23 UTC

LBSF 010130Z 14005KT 2800 -SN FEW004 SCT016 OVC021 M01/M02 Q1017 NOSIG

Lesnovo FIC: 130.600
Lesnovo Tower: 122.250

LBPD Tower (Archives)
Plovdiv, Bulgaria

Feed Status: UP
Listen in your browser - HTML5 player(in browser, HTML5)
Click here to listen with your own player(launches your MP3 player)

LBSF 010130Z 14005KT 2800 -SN FEW004 SCT016 OVC021 M01/M02 Q1017 NOSIG

LBSF Flight Activity (Flightaware)

Listeners: 0 out of 691 total

Plovdiv Tower: 125.500
Plovdiv Tower: 133.600

LBSF ATIS (Archives)
Sofia, Bulgaria

Feed Status: UP
Listen in your browser - HTML5 player(in browser, HTML5)
Click here to listen with your own player(launches your MP3 player)

LBSF 010130Z 14005KT 2800 -SN FEW004 SCT016 OVC021 M01/M02 Q1017 NOSIG

LBSF Flight Activity (Flightaware)

Listeners: 0 out of 691 total

Sofia ATIS: 126.680

LBSF Sofia Control East (Archives)
Sofia, Bulgaria

Feed Status: UP
Listen in your browser - HTML5 player(in browser, HTML5)
Click here to listen with your own player(launches your MP3 player)

LBSF 010130Z 14005KT 2800 -SN FEW004 SCT016 OVC021 M01/M02 Q1017 NOSIG

LBSF Flight Activity (Flightaware)

Listeners: 0 out of 691 total

Sofia Control (East/Middle Sector): 129.100
Sofia Control (Varna Sector): 134.700

LBSF Twr/App #1 (Archives)
Sofia, Bulgaria

Feed Status: UP
Listen in your browser - HTML5 player(in browser, HTML5)
Click here to listen with your own player(launches your MP3 player)

LBSF 010130Z 14005KT 2800 -SN FEW004 SCT016 OVC021 M01/M02 Q1017 NOSIG

LBSF Flight Activity (Flightaware)

Listeners: 0 out of 691 total

Sofia Approach: 123.700
Sofia Approach: 129.900
Sofia Tower: 118.100
Sofia Tower: 120.200

LBSF Twr/App #2 (Archives)
Sofia, Bulgaria

Feed Status: UP
Listen in your browser - HTML5 player(in browser, HTML5)
Click here to listen with your own player(launches your MP3 player)

LBSF 010130Z 14005KT 2800 -SN FEW004 SCT016 OVC021 M01/M02 Q1017 NOSIG

LBSF Flight Activity (Flightaware)

Listeners: 0 out of 691 total

Sofia Approach: 123.700
Sofia Tower: 118.100

LBWN Tower/Approach (Archives)
Varna, Bulgaria

Feed Status: UP
Listen in your browser - HTML5 player(in browser, HTML5)
Click here to listen with your own player(launches your MP3 player)

LBWN 010130Z 02011KT 350V060 CAVOK 04/M07 Q1019 NOSIG

LBWN Flight Activity (Flightaware)

Listeners: 0 out of 691 total

Varna Approach: 121.000
Varna Tower: 119.500

Bordeaux Control (Archives)
Bordeaux, France

Feed Status: UP
Listen in your browser - HTML5 player(in browser, HTML5)
Click here to listen with your own player(launches your MP3 player)

LFBD 010130Z AUTO 04003KT CAVOK 07/M00 Q1015

LFBD Flight Activity (Flightaware)

Listeners: 0 out of 691 total

Air to Air: 123.450
Bordeaux Control BN FL<300: 127.675
Bordeaux Control L3 FL>300: 134.250
Bordeaux Control R2 FL>300: 133.575
Emergency/Guard: 121.500

LFBD Aquitane Approach (Archives)
Bordeaux, France

Feed Status: UP
Listen in your browser - HTML5 player(in browser, HTML5)
Click here to listen with your own player(launches your MP3 player)

LFBD 010130Z AUTO 04003KT CAVOK 07/M00 Q1015

LFBD Flight Activity (Flightaware)

Listeners: 0 out of 691 total

Aquitane Approach: 129.875

LFBD Bordeaux Control Sector X1 (Archives)
Bordeaux, France

Feed Status: UP
Listen in your browser - HTML5 player(in browser, HTML5)
Click here to listen with your own player(launches your MP3 player)

LFBD 010130Z AUTO 04003KT CAVOK 07/M00 Q1015

LFBD Flight Activity (Flightaware)

Listeners: 0 out of 691 total

Bordeaux Control (Sector X1): 118.425

LFBD Ground (Archives)
Bordeaux, France

Feed Status: UP
Listen in your browser - HTML5 player(in browser, HTML5)
Click here to listen with your own player(launches your MP3 player)

LFBD 010130Z AUTO 04003KT CAVOK 07/M00 Q1015

LFBD Flight Activity (Flightaware)

Listeners: 0 out of 691 total

Merignac Ground: 121.900

LFBD Tower (Archives)
Bordeaux, France

Feed Status: UP
Listen in your browser - HTML5 player(in browser, HTML5)
Click here to listen with your own player(launches your MP3 player)

LFBD 010130Z AUTO 04003KT CAVOK 07/M00 Q1015

LFBD Flight Activity (Flightaware)

Listeners: 0 out of 691 total

Merignac Tower: 118.300

LFBU/LFBL Tower (Archives)
Limoges, France

Feed Status: UP
Listen in your browser - HTML5 player(in browser, HTML5)
Click here to listen with your own player(launches your MP3 player)

LFBU 010130Z AUTO 03007KT CAVOK 05/M05 Q1016

LFBU Flight Activity (Flightaware)

Listeners: 0 out of 691 total

LFBL Limoges Tower: 124.055
LFBU Angouleme Tower: 123.150
Medoc: 124.325

Bordeaux Control (Archives)
Angouleme, France

Feed Status: UP
Listen in your browser - HTML5 player(in browser, HTML5)
Click here to listen with your own player(launches your MP3 player)

LFBD 010130Z AUTO 04003KT CAVOK 07/M00 Q1015

LFBD Flight Activity (Flightaware)

Listeners: 0 out of 691 total

Air to Air: 123.450
Bordeaux Control BN FL<300: 127.675
Bordeaux Control L3 FL>300: 134.250
Bordeaux Control R2 FL>300: 133.575
Emergency/Guard: 121.500

LFBU/LFBL Tower (Archives)
Angouleme, France

Feed Status: UP
Listen in your browser - HTML5 player(in browser, HTML5)
Click here to listen with your own player(launches your MP3 player)

LFBU 010130Z AUTO 03007KT CAVOK 05/M05 Q1016

LFBU Flight Activity (Flightaware)

Listeners: 0 out of 691 total

LFBL Limoges Tower: 124.055
LFBU Angouleme Tower: 123.150
Medoc: 124.325

LFLL Tower (Archives)
Lyon, France

Feed Status: UP
Listen in your browser - HTML5 player(in browser, HTML5)
Click here to listen with your own player(launches your MP3 player)

LFLL 010130Z AUTO 23003KT CAVOK 02/M04 Q1019

LFLL Flight Activity (Flightaware)

Listeners: 0 out of 691 total

Lyon Tower: 120.450

Lyon FIS (Archives)
Lyon, France

Feed Status: UP
Listen in your browser - HTML5 player(in browser, HTML5)
Click here to listen with your own player(launches your MP3 player)

LFLL 010130Z AUTO 23003KT CAVOK 02/M04 Q1019

LFLL Flight Activity (Flightaware)

Listeners: 0 out of 691 total

Lyon FIS: 135.200

LFLP Twr/LFLB App
Annecy, France

Feed Status: DOWN
Offline since: 2020-03-31 18:34:40 UTC

LFLP 010130Z AUTO VRB02KT CAVOK M01/M04 Q1019

Annecy Tower: 118.200
Chambery Approach: 121.205
Chambery Info: 123.700

LFLY Tower (Archives)
Bron, France

Feed Status: UP
Listen in your browser - HTML5 player(in browser, HTML5)
Click here to listen with your own player(launches your MP3 player)

LFLY 010130Z AUTO 00000KT CAVOK 01/M03 Q1019

LFLY Flight Activity (Flightaware)

Listeners: 0 out of 691 total

Lyon-Bron Tower: 118.100

Lyon FIS (Archives)
Bron, France

Feed Status: UP
Listen in your browser - HTML5 player(in browser, HTML5)
Click here to listen with your own player(launches your MP3 player)

LFLL 010130Z AUTO 23003KT CAVOK 02/M04 Q1019

LFLL Flight Activity (Flightaware)

Listeners: 0 out of 691 total

Lyon FIS: 135.200

LFMD Ground/Tower (Archives)
Cannes, France

Feed Status: UP
Listen in your browser - HTML5 player(in browser, HTML5)
Click here to listen with your own player(launches your MP3 player)

LFMD 010130Z AUTO 11006KT 060V180 9999 OVC066 11/00 Q1020

LFMD Flight Activity (Flightaware)

Listeners: 0 out of 691 total

Cannes Ground: 121.800
Cannes Tower: 118.625

LFMN Approach (Archives)
Nice, France

Feed Status: UP
Listen in your browser - HTML5 player(in browser, HTML5)
Click here to listen with your own player(launches your MP3 player)

LFMN 010130Z AUTO 08023KT 9999 OVC064 11/02 Q1020

LFMN Flight Activity (Flightaware)

Listeners: 0 out of 691 total

Nice Approach: 124.175

LFMN Control (High) (Archives)
Nice, France

Feed Status: UP
Listen in your browser - HTML5 player(in browser, HTML5)
Click here to listen with your own player(launches your MP3 player)

LFMN 010130Z AUTO 08023KT 9999 OVC064 11/02 Q1020

LFMN Flight Activity (Flightaware)

Listeners: 0 out of 691 total

Marseille Control Sector K1 (FL245-FL305): 126.780

LFMN FIS/Approach (Archives)
Nice, France

Feed Status: UP
Listen in your browser - HTML5 player(in browser, HTML5)
Click here to listen with your own player(launches your MP3 player)

LFMN 010130Z AUTO 08023KT 9999 OVC064 11/02 Q1020

LFMN Flight Activity (Flightaware)

Listeners: 0 out of 691 total

Nice FIS/Approach (TMA4 NICE 2500ft - FL115): 120.850

LFMN Ground/Tower (Archives)
Nice, France

Feed Status: UP
Listen in your browser - HTML5 player(in browser, HTML5)
Click here to listen with your own player(launches your MP3 player)

LFMN 010130Z AUTO 08023KT 9999 OVC064 11/02 Q1020

LFMN Flight Activity (Flightaware)

Listeners: 0 out of 691 total

Nice Ground: 121.700
Nice Tower: 118.700

LFPG Tower (Archives)
Paris, France

Feed Status: UP
Listen in your browser - HTML5 player(in browser, HTML5)
Click here to listen with your own player(launches your MP3 player)

LFPG 010130Z AUTO 03008KT CAVOK 02/M04 Q1023

LFPG Flight Activity (Flightaware)

Listeners: 1 out of 691 total

De Gaulle Tower: 120.900
De Gaulle Tower: 119.250

LFPO Approach (Archives)
Paris, France

Feed Status: UP
Listen in your browser - HTML5 player(in browser, HTML5)
Click here to listen with your own player(launches your MP3 player)

LFPO 010130Z AUTO 05006KT CAVOK 04/M03 Q1023

LFPO Flight Activity (Flightaware)

Listeners: 0 out of 691 total

Orly Approach: 124.450
Orly Approach: 118.850
Orly Approach: 120.850
Orly Approach: 123.875

LFPO Departure (Archives)
Paris, France

Feed Status: UP
Listen in your browser - HTML5 player(in browser, HTML5)
Click here to listen with your own player(launches your MP3 player)

LFPO 010130Z AUTO 05006KT CAVOK 04/M03 Q1023

LFPO Flight Activity (Flightaware)

Listeners: 0 out of 691 total

Orly Departure: 127.750

LFPO Tower (Archives)
Paris, France

Feed Status: UP
Listen in your browser - HTML5 player(in browser, HTML5)
Click here to listen with your own player(launches your MP3 player)

LFPO 010130Z AUTO 05006KT CAVOK 04/M03 Q1023

LFPO Flight Activity (Flightaware)

Listeners: 1 out of 691 total

Orly Tower: 120.500
Orly Tower: 118.700

LFSB Tower (Archives)
Basel, Switzerland

Feed Status: UP
Listen in your browser - HTML5 player(in browser, HTML5)
Click here to listen with your own player(launches your MP3 player)

LFSB 010130Z AUTO 30003KT CAVOK M02/M06 Q1021

LFSB Flight Activity (Flightaware)

Listeners: 1 out of 691 total

Mulhouse Tower: 118.300

LGAV App/Radar (Archives)
Athens, Greece

Feed Status: UP
Listen in your browser - HTML5 player(in browser, HTML5)
Click here to listen with your own player(launches your MP3 player)

LGAV 010150Z 06006KT 9999 SCT030 10/06 Q1013

LGAV Flight Activity (Flightaware)

Listeners: 0 out of 691 total

Athens Approach: 132.975
Athens Information: 130.925
Athens Information: 119.750
Athens Radar (Kerkira-Kefalinia-Paleohora Sectors FL460-FL345): 134.325
Athens Radar (Milos/Sitia Sectors FL460-FL345): 125.200
Athens Radar (Paleohora /Kerkira Sectors FL460-FL345): 133.725
Athens Radar (Paleohora Sector FL460-FL345): 124.625
Athens Radar (Rhodos/Kavos Sector FL460-FL345): 133.325
Emergency/Guard: 121.500
Makedonia Radar (Thessaloniki/Skopelos/Limnos/Kavala Sectors FL460-FL345): 133.575

LGAV Clearance Delivery (Archives)
Athens, Greece

Feed Status: UP
Listen in your browser - HTML5 player(in browser, HTML5)
Click here to listen with your own player(launches your MP3 player)

LGAV 010150Z 06006KT 9999 SCT030 10/06 Q1013

LGAV Flight Activity (Flightaware)

Listeners: 0 out of 691 total

Athens Clearance Delivery: 118.675

LGAV Director (Archives)
Athens, Greece

Feed Status: UP
Listen in your browser - HTML5 player(in browser, HTML5)
Click here to listen with your own player(launches your MP3 player)

LGAV 010150Z 06006KT 9999 SCT030 10/06 Q1013

LGAV Flight Activity (Flightaware)

Listeners: 0 out of 691 total

Athens Director: 121.400

LGAV Ground (North) (Archives)
Athens, Greece

Feed Status: UP
Listen in your browser - HTML5 player(in browser, HTML5)
Click here to listen with your own player(launches your MP3 player)

LGAV 010150Z 06006KT 9999 SCT030 10/06 Q1013

LGAV Flight Activity (Flightaware)

Listeners: 0 out of 691 total

Athens Ground (North): 121.750

LGAV Ground (South) (Archives)
Athens, Greece

Feed Status: UP
Listen in your browser - HTML5 player(in browser, HTML5)
Click here to listen with your own player(launches your MP3 player)

LGAV 010150Z 06006KT 9999 SCT030 10/06 Q1013

LGAV Flight Activity (Flightaware)

Listeners: 0 out of 691 total

Athens Ground (South): 121.950

LGAV Tower (Rwy 3L/21R) (Archives)
Athens, Greece

Feed Status: UP
Listen in your browser - HTML5 player(in browser, HTML5)
Click here to listen with your own player(launches your MP3 player)

LGAV 010150Z 06006KT 9999 SCT030 10/06 Q1013

LGAV Flight Activity (Flightaware)

Listeners: 0 out of 691 total

Athens Tower (Rwy 03L/21R): 136.275

LGAV Tower (Rwy 3R/21L) (Archives)
Athens, Greece

Feed Status: UP
Listen in your browser - HTML5 player(in browser, HTML5)
Click here to listen with your own player(launches your MP3 player)

LGAV 010150Z 06006KT 9999 SCT030 10/06 Q1013

LGAV Flight Activity (Flightaware)

Listeners: 0 out of 691 total

Athens Tower (Rwy 03R/21L): 118.625

LGIR Approach (Archives)
Iraklion, Greece

Feed Status: UP
Listen in your browser - HTML5 player(in browser, HTML5)
Click here to listen with your own player(launches your MP3 player)

LGIR 010150Z 23004KT 9999 FEW020 11/09 Q1012 NOSIG

LGIR Flight Activity (Flightaware)

Listeners: 0 out of 691 total

Iraklion Radar: 123.975

LGIR Ground (Archives)
Iraklion, Greece

Feed Status: UP
Listen in your browser - HTML5 player(in browser, HTML5)
Click here to listen with your own player(launches your MP3 player)

LGIR 010150Z 23004KT 9999 FEW020 11/09 Q1012 NOSIG

LGIR Flight Activity (Flightaware)

Listeners: 0 out of 691 total

Heraklion Ground: 121.700

LGIR Tower (Archives)
Iraklion, Greece

Feed Status: UP
Listen in your browser - HTML5 player(in browser, HTML5)
Click here to listen with your own player(launches your MP3 player)

LGIR 010150Z 23004KT 9999 FEW020 11/09 Q1012 NOSIG

LGIR Flight Activity (Flightaware)

Listeners: 0 out of 691 total

Heraklion Tower: 120.850

LHBP Approach (Archives)
Budapest, Hungary

Feed Status: UP
Listen in your browser - HTML5 player(in browser, HTML5)
Click here to listen with your own player(launches your MP3 player)

LHBP 010150Z AUTO 07004KT 9999 NCD 00/M11 Q1023 NOSIG

LHBP Flight Activity (Flightaware)

Listeners: 0 out of 691 total

Budapest Approach: 122.975
Budapest Approach (Upper): 123.860

LHBP Approach (Director) (Archives)
Budapest, Hungary

Feed Status: UP
Listen in your browser - HTML5 player(in browser, HTML5)
Click here to listen with your own player(launches your MP3 player)

LHBP 010150Z AUTO 07004KT 9999 NCD 00/M11 Q1023 NOSIG

LHBP Flight Activity (Flightaware)

Listeners: 0 out of 691 total

Budapest Director: 119.510

LHBP ATIS (Archives)
Budapest, Hungary

Feed Status: UP
Listen in your browser - HTML5 player(in browser, HTML5)
Click here to listen with your own player(launches your MP3 player)

LHBP 010150Z AUTO 07004KT 9999 NCD 00/M11 Q1023 NOSIG

LHBP Flight Activity (Flightaware)

Listeners: 0 out of 691 total

Budapest ATIS: 132.380

LHBP Clearance Delivery (Archives)
Budapest, Hungary

Feed Status: UP
Listen in your browser - HTML5 player(in browser, HTML5)
Click here to listen with your own player(launches your MP3 player)

LHBP 010150Z AUTO 07004KT 9999 NCD 00/M11 Q1023 NOSIG

LHBP Flight Activity (Flightaware)

Listeners: 0 out of 691 total

Budapest Clearance Delivery: 134.540

LHBP Ground (Archives)
Budapest, Hungary

Feed Status: UP
Listen in your browser - HTML5 player(in browser, HTML5)
Click here to listen with your own player(launches your MP3 player)

LHBP 010150Z AUTO 07004KT 9999 NCD 00/M11 Q1023 NOSIG

LHBP Flight Activity (Flightaware)

Listeners: 0 out of 691 total

Budapest Ground: 121.910

LHBP Info (Archives)
Budapest, Hungary

Feed Status: UP
Listen in your browser - HTML5 player(in browser, HTML5)
Click here to listen with your own player(launches your MP3 player)

LHBP 010150Z AUTO 07004KT 9999 NCD 00/M11 Q1023 NOSIG

LHBP Flight Activity (Flightaware)

Listeners: 0 out of 691 total

Budapest Info: 119.350

LHBP Tower (Archives)
Budapest, Hungary

Feed Status: UP
Listen in your browser - HTML5 player(in browser, HTML5)
Click here to listen with your own player(launches your MP3 player)

LHBP 010150Z AUTO 07004KT 9999 NCD 00/M11 Q1023 NOSIG

LHBP Flight Activity (Flightaware)

Listeners: 0 out of 691 total

Budapest Tower: 118.100

LHBP Twr/Info (Archives)
Budapest, Hungary

Feed Status: UP
Listen in your browser - HTML5 player(in browser, HTML5)
Click here to listen with your own player(launches your MP3 player)

LHBP 010150Z AUTO 07004KT 9999 NCD 00/M11 Q1023 NOSIG

LHBP Flight Activity (Flightaware)

Listeners: 0 out of 691 total

Budapest Info: 119.350
Budapest Tower: 118.100

LHCC Control (East/West) (Archives)
Budapest, Hungary

Feed Status: UP
Listen in your browser - HTML5 player(in browser, HTML5)
Click here to listen with your own player(launches your MP3 player)

LHBP 010150Z AUTO 07004KT 9999 NCD 00/M11 Q1023 NOSIG

LHBP Flight Activity (Flightaware)

Listeners: 0 out of 691 total

Budapest Control (East Low Sector): 120.375
Budapest Control (West Low Sector): 133.200

LHDC Info/Tower (Archives)
Debrecen, Hungary

Feed Status: UP
Listen in your browser - HTML5 player(in browser, HTML5)
Click here to listen with your own player(launches your MP3 player)

LHDC 010115Z AUTO 05006KT 9000 NCD M04/M12 Q1023

LHDC Flight Activity (Flightaware)

Listeners: 0 out of 691 total

Debrecen Info/Tower: 125.900

LHEM CTAF (Archives)
Esztergom, Hungary

Feed Status: UP
Listen in your browser - HTML5 player(in browser, HTML5)
Click here to listen with your own player(launches your MP3 player)

LHEM Flight Activity (Flightaware)

Listeners: 0 out of 691 total

Esztergom CTAF: 126.850

LHPR Info/AFIS (Archives)
Gyor, Hungary

Feed Status: UP
Listen in your browser - HTML5 player(in browser, HTML5)
Click here to listen with your own player(launches your MP3 player)

LHPR 010115Z AUTO 24003KT CAVOK M03/M05 Q1024

LHPR Flight Activity (Flightaware)

Listeners: 0 out of 691 total

Gyor AFIS: 129.910

LHUD CTAF/Info/AFIS (Archives)
Szeged, Hungary

Feed Status: UP
Listen in your browser - HTML5 player(in browser, HTML5)
Click here to listen with your own player(launches your MP3 player)

LHUD 032345Z 35004KT CAVOK 18/13 Q1019

LHUD Flight Activity (Flightaware)

Listeners: 0 out of 691 total

Szeged CTAF/Info/AFIS: 122.810

LJLJ Info (Archives)
Ljubljana, Slovenia

Feed Status: UP
Listen in your browser - HTML5 player(in browser, HTML5)
Click here to listen with your own player(launches your MP3 player)

LJLJ 010130Z VRB02KT 9999 FEW060 SCT093 M00/M06 Q1023 NOSIG

LJLJ Flight Activity (Flightaware)

Listeners: 0 out of 691 total

Ljubljana Info: 118.475

LJLJ Radar (Archives)
Ljubljana, Slovenia

Feed Status: UP
Listen in your browser - HTML5 player(in browser, HTML5)
Click here to listen with your own player(launches your MP3 player)

LJLJ 010130Z VRB02KT 9999 FEW060 SCT093 M00/M06 Q1023 NOSIG

LJLJ Flight Activity (Flightaware)

Listeners: 0 out of 691 total

Ljubljana Approach: 135.275

LJLJ Tower (Archives)
Ljubljana, Slovenia

Feed Status: UP
Listen in your browser - HTML5 player(in browser, HTML5)
Click here to listen with your own player(launches your MP3 player)

LJLJ 010130Z VRB02KT 9999 FEW060 SCT093 M00/M06 Q1023 NOSIG

LJLJ Flight Activity (Flightaware)

Listeners: 0 out of 691 total

Ljubljana Tower: 118.000

LJMB Info/FSS/FIC
Maribor, Slovenia

Feed Status: DOWN
Offline since: 2020-03-04 08:39:39 UTC

LJMB 010130Z AUTO 35005KT 9999 NCD M01/M05 Q1024

Ljubljana Information FSS/FIC (Maribor Area): 118.475

LJMB Tower/Approach
Maribor, Slovenia

Feed Status: DOWN
Offline since: 2020-03-05 21:16:39 UTC

LJMB 010130Z AUTO 35005KT 9999 NCD M01/M05 Q1024

Maribor Tower/Approach: 119.200

LJPZ Tower
Secovlje, Slovenia

Feed Status: DOWN
Offline since: 2020-03-31 19:17:06 UTC

LJPZ 010130Z AUTO 11005KT 9999 NCD 01/M07 Q1024

Portoroz Tower: 124.875

LKPM Tower (Archives)
Pribram, Czech Republic

Feed Status: UP
Listen in your browser - HTML5 player(in browser, HTML5)
Click here to listen with your own player(launches your MP3 player)

LKPM Flight Activity (Flightaware)

Listeners: 0 out of 691 total

Pribram Tower: 118.750

LKAA FIR (High) (Archives)
Prague, Czech Republic

Feed Status: UP
Listen in your browser - HTML5 player(in browser, HTML5)
Click here to listen with your own player(launches your MP3 player)

LKAA Flight Activity (Flightaware)

Listeners: 0 out of 691 total

LKAA FIR Sector West High / Praha Radar : 132.065

LKAA FIR (Low) (Archives)
Prague, Czech Republic

Feed Status: UP
Listen in your browser - HTML5 player(in browser, HTML5)
Click here to listen with your own player(launches your MP3 player)

LKAA Flight Activity (Flightaware)

Listeners: 0 out of 691 total

LKAA FIR Sector West Low / Praha Radar: 120.275

LKPR Approach (Archives)
Prague, Czech Republic

Feed Status: UP
Listen in your browser - HTML5 player(in browser, HTML5)
Click here to listen with your own player(launches your MP3 player)

LKPR 010130Z 23003KT CAVOK M06/M09 Q1024 NOSIG

LKPR Flight Activity (Flightaware)

Listeners: 0 out of 691 total

Prague Approach/Radar: 127.580

LKPR Clearance Del (Archives)
Prague, Czech Republic

Feed Status: UP
Listen in your browser - HTML5 player(in browser, HTML5)
Click here to listen with your own player(launches your MP3 player)

LKPR 010130Z 23003KT CAVOK M06/M09 Q1024 NOSIG

LKPR Flight Activity (Flightaware)

Listeners: 0 out of 691 total

Prague/Ruzyne Clearance Delivery: 120.060

LKPR Director/Ruzyne Radar (Archives)
Prague, Czech Republic

Feed Status: UP
Listen in your browser - HTML5 player(in browser, HTML5)
Click here to listen with your own player(launches your MP3 player)

LKPR 010130Z 23003KT CAVOK M06/M09 Q1024 NOSIG

LKPR Flight Activity (Flightaware)

Listeners: 0 out of 691 total

Prague Director/Ruzyne Radar: 119.010

LKPR Ground (Archives)
Prague, Czech Republic

Feed Status: UP
Listen in your browser - HTML5 player(in browser, HTML5)
Click here to listen with your own player(launches your MP3 player)

LKPR 010130Z 23003KT CAVOK M06/M09 Q1024 NOSIG

LKPR Flight Activity (Flightaware)

Listeners: 0 out of 691 total

Prague/Ruzyne Ground: 121.910

LKPR Tower (Archives)
Prague, Czech Republic

Feed Status: UP
Listen in your browser - HTML5 player(in browser, HTML5)
Click here to listen with your own player(launches your MP3 player)

LKPR 010130Z 23003KT CAVOK M06/M09 Q1024 NOSIG

LKPR Flight Activity (Flightaware)

Listeners: 2 out of 691 total

Prague/Ruzyne Tower: 134.560

LKTB Gnd/Twr/Radar (Archives)
Brno, Czech Republic

Feed Status: UP
Listen in your browser - HTML5 player(in browser, HTML5)
Click here to listen with your own player(launches your MP3 player)

LKTB 010130Z 30002KT CAVOK M03/M06 Q1025 NOSIG

LKTB Flight Activity (Flightaware)

Listeners: 0 out of 691 total

Brno Ground: 125.430
Brno Handling: 131.800
Brno Radar (Approach): 127.350
Brno Tower: 119.605

Santa Maria Control (Oceanic)
Santa Maria Island (Azores), Portugal

Feed Status: DOWN
Offline since: 2020-02-01 00:20:23 UTC

LPAZ 010130Z 09012KT 060V120 9999 FEW028 14/06 Q1018

Emergency/Guard: 121.500
LPHR (Horta) Approach: 120.600
LPLA (Terceira) Approach: 135.000
LPLA (Terceira) Tower: 122.100
LPPD (Ponta Delgada) Approach: 119.400
Ponta Delgada Ground: 131.600
Santa Maria Approach: 119.100
Santa Maria Control: 132.150

LPLA Gnd/Twr/App (Archives)
Lajes, Portugal

Feed Status: UP
Listen in your browser - HTML5 player(in browser, HTML5)
Click here to listen with your own player(launches your MP3 player)

LPLA 010100Z /////KT 9999 FEW020 SCT030 14/09 Q1019

LPLA Flight Activity (Flightaware)

Listeners: 0 out of 691 total

Lajes Approach: 135.000
Lajes Ground: 121.900
Lajes Tower: 122.100

LPMA Approach (Archives)
Madeira, Portugal

Feed Status: UP
Listen in your browser - HTML5 player(in browser, HTML5)
Click here to listen with your own player(launches your MP3 player)

LPMA 010130Z 35011KT 320V020 9999 FEW015 15/08 Q1016

LPMA Flight Activity (Flightaware)

Listeners: 0 out of 691 total

Madeira Approach: 119.605

LPPR Approach #1 (Archives)
Porto, Portugal

Feed Status: UP
Listen in your browser - HTML5 player(in browser, HTML5)
Click here to listen with your own player(launches your MP3 player)

LPPR 010130Z 11006KT 9999 FEW020 06/04 Q1009

LPPR Flight Activity (Flightaware)

Listeners: 1 out of 691 total

Porto Approach: 121.105

LPPT Approach (Archives)
Lisbon, Portugal

Feed Status: UP
Listen in your browser - HTML5 player(in browser, HTML5)
Click here to listen with your own player(launches your MP3 player)

LPPT 010130Z 00000KT 9999 FEW020 FEW025TCU 07/06 Q1009

LPPT Flight Activity (Flightaware)

Listeners: 0 out of 691 total

Lisbon Approach: 119.100

LRCL Twr/App #1 (Archives)
Cluj-Napoca, Romania

Feed Status: UP
Listen in your browser - HTML5 player(in browser, HTML5)
Click here to listen with your own player(launches your MP3 player)

LRCL 010130Z 36002KT CAVOK M06/M08 Q1023

LRCL Flight Activity (Flightaware)

Listeners: 0 out of 691 total

Cluj Approach: 126.425
Cluj Tower: 118.705

LRCL Twr/App/ACC (Archives)
Cluj-Napoca, Romania

Feed Status: UP
Listen in your browser - HTML5 player(in browser, HTML5)
Click here to listen with your own player(launches your MP3 player)

LRCL 010130Z 36002KT CAVOK M06/M08 Q1023

LRCL Flight Activity (Flightaware)

Listeners: 0 out of 691 total

Cluj Approach: 126.425
Cluj Tower: 118.705
Napoc ACC: 127.075

LROP Ground (Archives)
Bucharest, Romania

Feed Status: UP
Listen in your browser - HTML5 player(in browser, HTML5)
Click here to listen with your own player(launches your MP3 player)

LROP 010130Z 02004KT CAVOK 00/M09 Q1022 NOSIG

LROP Flight Activity (Flightaware)

Listeners: 0 out of 691 total

Bucharest Ground: 121.855

LROP Radar (Archives)
Bucharest, Romania

Feed Status: UP
Listen in your browser - HTML5 player(in browser, HTML5)
Click here to listen with your own player(launches your MP3 player)

LROP 010130Z 02004KT CAVOK 00/M09 Q1022 NOSIG

LROP Flight Activity (Flightaware)

Listeners: 0 out of 691 total

Bucharest Radar (Arges Mid sector): 121.175
Bucharest Radar (Arges Top Sector): 123.265
Bucharest Radar (Lomos Top Sector): 132.865

LROP Tower/Approach (Archives)
Bucharest, Romania

Feed Status: UP
Listen in your browser - HTML5 player(in browser, HTML5)
Click here to listen with your own player(launches your MP3 player)

LROP 010130Z 02004KT CAVOK 00/M09 Q1022 NOSIG

LROP Flight Activity (Flightaware)

Listeners: 0 out of 691 total

Bucharest Approach: 119.415
Bucharest Director: 127.155
Bucharest Tower: 118.805

LROP Twr/App/Radar (Archives)
Bucharest, Romania

Feed Status: UP
Listen in your browser - HTML5 player(in browser, HTML5)
Click here to listen with your own player(launches your MP3 player)

LROP 010130Z 02004KT CAVOK 00/M09 Q1022 NOSIG

LROP Flight Activity (Flightaware)

Listeners: 2 out of 691 total

Bucharest Approach: 119.415
Bucharest Director: 127.155
Bucharest Radar (Arges Mid sector): 121.175
Bucharest Radar (Arges Top Sector): 123.265
Bucharest Radar (Lomos Top Sector): 132.865
Bucharest Tower: 118.805

LRSB Tower/CTAF (Archives)
Sibiu, Romania

Feed Status: UP
Listen in your browser - HTML5 player(in browser, HTML5)
Click here to listen with your own player(launches your MP3 player)

LRSB 010130Z 26003KT 9999 FEW058 SCT066 M04/M04 Q1021

LRSB Flight Activity (Flightaware)

Listeners: 0 out of 691 total

Sibiu Tower: 121.305

LRTR Tower (Archives)
Timisoara, Romania

Feed Status: UP
Listen in your browser - HTML5 player(in browser, HTML5)
Click here to listen with your own player(launches your MP3 player)

LRTR 010130Z VRB02KT CAVOK M03/M06 Q1022 NOSIG

LRTR Flight Activity (Flightaware)

Listeners: 0 out of 691 total

ARAD Approach: 127.250
Timisoara Tower: 120.100

LSGS Gnd/Twr/App (Archives)
Sion, Switzerland

Feed Status: UP
Listen in your browser - HTML5 player(in browser, HTML5)
Click here to listen with your own player(launches your MP3 player)

LSGS 010150Z AUTO 00000KT CAVOK 02/M01 Q1019

LSGS Flight Activity (Flightaware)

Listeners: 0 out of 691 total

Alpine Jet Service Handling: 131.675
Sion Airport Handling: 131.475
Sion Approach (IFR ARR MIL OFF): 126.825
Sion Ground: 121.700
Sion Tower: 118.275

LSMD Tower (Archives)
Dubendorf, Switzerland

Feed Status: UP
Listen in your browser - HTML5 player(in browser, HTML5)
Click here to listen with your own player(launches your MP3 player)

LSZH 010150Z 30007KT CAVOK M02/M07 Q1021 NOSIG

LSZH Flight Activity (Flightaware)

Listeners: 0 out of 691 total

Dubendorf Tower: 118.975

LSPM AFIS (Archives)
Ambri, Switzerland

Feed Status: UP
Listen in your browser - HTML5 player(in browser, HTML5)
Click here to listen with your own player(launches your MP3 player)

LSPM Flight Activity (Flightaware)

Listeners: 0 out of 691 total

Ambri AFIS: 118.525

LSZA Tower (Archives)
Agno, Switzerland

Feed Status: UP
Listen in your browser - HTML5 player(in browser, HTML5)
Click here to listen with your own player(launches your MP3 player)

LSZA 010150Z AUTO 35002KT 9999 FEW048 OVC060 04/02 Q1023

LSZA Flight Activity (Flightaware)

Listeners: 0 out of 691 total

Lugano Tower: 120.250

LSZB Twr/App/Dep (Archives)
Bern, Switzerland

Feed Status: UP
Listen in your browser - HTML5 player(in browser, HTML5)
Click here to listen with your own player(launches your MP3 player)

LSZB 010150Z AUTO VRB01KT CAVOK M04/M07 Q1020

LSZB Flight Activity (Flightaware)

Listeners: 0 out of 691 total

LSZB Arrival/Departure: 127.325
LSZB Tower: 121.025

LSZG Tower (Archives)
Grenchen, Switzerland

Feed Status: UP
Listen in your browser - HTML5 player(in browser, HTML5)
Click here to listen with your own player(launches your MP3 player)

LSZG 010150Z AUTO 04003KT CAVOK M01/M07 Q1021

LSZG Flight Activity (Flightaware)

Listeners: 0 out of 691 total

Grenchen Tower: 120.100

LSZH Approach (East) (Archives)
Zurich, Switzerland

Feed Status: UP
Listen in your browser - HTML5 player(in browser, HTML5)
Click here to listen with your own player(launches your MP3 player)

LSZH 010150Z 30007KT CAVOK M02/M07 Q1021 NOSIG

LSZH Flight Activity (Flightaware)

Listeners: 0 out of 691 total

Zurich Approach (East): 135.225

LSZH Approach (West) (Archives)
Zurich, Switzerland

Feed Status: UP
Listen in your browser - HTML5 player(in browser, HTML5)
Click here to listen with your own player(launches your MP3 player)

LSZH 010150Z 30007KT CAVOK M02/M07 Q1021 NOSIG

LSZH Flight Activity (Flightaware)

Listeners: 0 out of 691 total

Zurich Approach (West): 118.000

LSZH Apron (South) (Archives)
Zurich, Switzerland

Feed Status: UP
Listen in your browser - HTML5 player(in browser, HTML5)
Click here to listen with your own player(launches your MP3 player)

LSZH 010150Z 30007KT CAVOK M02/M07 Q1021 NOSIG

LSZH Flight Activity (Flightaware)

Listeners: 1 out of 691 total

Zurich Apron (South): 121.755

LSZH Apron (West) (Archives)
Zurich, Switzerland

Feed Status: UP
Listen in your browser - HTML5 player(in browser, HTML5)
Click here to listen with your own player(launches your MP3 player)

LSZH 010150Z 30007KT CAVOK M02/M07 Q1021 NOSIG

LSZH Flight Activity (Flightaware)

Listeners: 0 out of 691 total

Zurich Apron (West): 121.855

LSZH Clearance Delivery (Archives)
Zurich, Switzerland

Feed Status: UP
Listen in your browser - HTML5 player(in browser, HTML5)
Click here to listen with your own player(launches your MP3 player)

LSZH 010150Z 30007KT CAVOK M02/M07 Q1021 NOSIG

LSZH Flight Activity (Flightaware)

Listeners: 1 out of 691 total

Zurich Clearance Delivery: 121.925

LSZH Ground (Archives)
Zurich, Switzerland

Feed Status: UP
Listen in your browser - HTML5 player(in browser, HTML5)
Click here to listen with your own player(launches your MP3 player)

LSZH 010150Z 30007KT CAVOK M02/M07 Q1021 NOSIG

LSZH Flight Activity (Flightaware)

Listeners: 0 out of 691 total

Zurich Ground: 121.905

LSZH Radar (Archives)
Zurich, Switzerland

Feed Status: UP
Listen in your browser - HTML5 player(in browser, HTML5)
Click here to listen with your own player(launches your MP3 player)

LSZH 010150Z 30007KT CAVOK M02/M07 Q1021 NOSIG

LSZH Flight Activity (Flightaware)

Listeners: 1 out of 691 total

Zurich Radar ACC (-FL240 East): 133.900
Zurich Radar ACC (-FL240 North): 136.150
Zurich Radar ACC (-FL240 South): 128.050
Zurich Radar ACC (-FL240 West): 135.675
Zurich Radar ACC (FL250-280): 133.050
Zurich Radar ACC (FL290-320): 132.815
Zurich Radar ACC (FL330-350): 134.600
Zurich Radar ACC (FL360+): 133.400

LSZH Radar 132.815 (Archives)
Zurich, Switzerland

Feed Status: UP
Listen in your browser - HTML5 player(in browser, HTML5)
Click here to listen with your own player(launches your MP3 player)

LSZH 010150Z 30007KT CAVOK M02/M07 Q1021 NOSIG

LSZH Flight Activity (Flightaware)

Listeners: 0 out of 691 total

Zurich Radar: 132.815

LSZH Radar 133.050 (Archives)
Zurich, Switzerland

Feed Status: UP
Listen in your browser - HTML5 player(in browser, HTML5)
Click here to listen with your own player(launches your MP3 player)

LSZH 010150Z 30007KT CAVOK M02/M07 Q1021 NOSIG

LSZH Flight Activity (Flightaware)

Listeners: 0 out of 691 total

Zurich Radar: 133.050

LSZH Radar 133.405 (Archives)
Zurich, Switzerland

Feed Status: UP
Listen in your browser - HTML5 player(in browser, HTML5)
Click here to listen with your own player(launches your MP3 player)

LSZH 010150Z 30007KT CAVOK M02/M07 Q1021 NOSIG

LSZH Flight Activity (Flightaware)

Listeners: 0 out of 691 total

Zurich Radar: 133.405

LSZH Radar 133.690 (Archives)
Zurich, Switzerland

Feed Status: UP
Listen in your browser - HTML5 player(in browser, HTML5)
Click here to listen with your own player(launches your MP3 player)

LSZH 010150Z 30007KT CAVOK M02/M07 Q1021 NOSIG

LSZH Flight Activity (Flightaware)

Listeners: 0 out of 691 total

Zurich Radar: 133.690

LSZH Radar 133.905 (Archives)
Zurich, Switzerland

Feed Status: UP
Listen in your browser - HTML5 player(in browser, HTML5)
Click here to listen with your own player(launches your MP3 player)

LSZH 010150Z 30007KT CAVOK M02/M07 Q1021 NOSIG

LSZH Flight Activity (Flightaware)

Listeners: 0 out of 691 total

Zurich Radar (Below FL240 East): 133.905

LSZH Radar 134.605 (Archives)
Zurich, Switzerland

Feed Status: UP
Listen in your browser - HTML5 player(in browser, HTML5)
Click here to listen with your own player(launches your MP3 player)

LSZH 010150Z 30007KT CAVOK M02/M07 Q1021 NOSIG

LSZH Flight Activity (Flightaware)

Listeners: 0 out of 691 total

Zurich Radar (FL330-350): 134.605

LSZH Radar 135.680 (Archives)
Zurich, Switzerland

Feed Status: UP
Listen in your browser - HTML5 player(in browser, HTML5)
Click here to listen with your own player(launches your MP3 player)

LSZH 010150Z 30007KT CAVOK M02/M07 Q1021 NOSIG

LSZH Flight Activity (Flightaware)

Listeners: 0 out of 691 total


LSZH Radar 136.155 (Archives)
Zurich, Switzerland

Feed Status: UP
Listen in your browser - HTML5 player(in browser, HTML5)
Click here to listen with your own player(launches your MP3 player)

LSZH 010150Z 30007KT CAVOK M02/M07 Q1021 NOSIG

LSZH Flight Activity (Flightaware)

Listeners: 1 out of 691 total

Zurich Radar (Below FL240 North): 136.155

LSZH Tower (Archives)
Zurich, Switzerland

Feed Status: UP
Listen in your browser - HTML5 player(in browser, HTML5)
Click here to listen with your own player(launches your MP3 player)

LSZH 010150Z 30007KT CAVOK M02/M07 Q1021 NOSIG

LSZH Flight Activity (Flightaware)

Listeners: 2 out of 691 total

Zurich Tower: 118.100

LSZH Tower (14/32) (Archives)
Zurich, Switzerland

Feed Status: UP
Listen in your browser - HTML5 player(in browser, HTML5)
Click here to listen with your own player(launches your MP3 player)

LSZH 010150Z 30007KT CAVOK M02/M07 Q1021 NOSIG

LSZH Flight Activity (Flightaware)

Listeners: 0 out of 691 total

Zurich Tower (Rwy 14 App/32 Takeoff): 120.225

LSZH Twr/Gnd (backup) (Archives)
Zurich, Switzerland

Feed Status: UP
Listen in your browser - HTML5 player(in browser, HTML5)
Click here to listen with your own player(launches your MP3 player)

LSZH 010150Z 30007KT CAVOK M02/M07 Q1021 NOSIG

LSZH Flight Activity (Flightaware)

Listeners: 0 out of 691 total

Zurich Twr/Gnd (backup): 119.700

LSZL Tower (Archives)
Locarno, Switzerland

Feed Status: UP
Listen in your browser - HTML5 player(in browser, HTML5)
Click here to listen with your own player(launches your MP3 player)

LSZL 010150Z AUTO VRB01KT 9999NDV FEW036 BKN041 05/02 Q1023 RMK

LSZL Flight Activity (Flightaware)

Listeners: 0 out of 691 total


LSZN CTAF (Archives)
Zurich, Switzerland

Feed Status: UP
Listen in your browser - HTML5 player(in browser, HTML5)
Click here to listen with your own player(launches your MP3 player)

LSZN Flight Activity (Flightaware)

Listeners: 0 out of 691 total

Hausen am Albis CTAF: 130.775

LSZR Tower (Archives)
Altenrhein, Switzerland

Feed Status: UP
Listen in your browser - HTML5 player(in browser, HTML5)
Click here to listen with your own player(launches your MP3 player)

LSZR 010150Z AUTO VRB01KT CAVOK M03/M06 Q1021

LSZR Flight Activity (Flightaware)

Listeners: 0 out of 691 total

Altenrhein Tower: 135.425

LSZW CTAF (Archives)
Thun, Switzerland

Feed Status: UP
Listen in your browser - HTML5 player(in browser, HTML5)
Click here to listen with your own player(launches your MP3 player)

LSZW Flight Activity (Flightaware)

Listeners: 0 out of 691 total

Thun CTAF/Info: 123.250

LTBA Gnd/Twr/App (Archives)
Istanbul, Turkey

Feed Status: UP
Listen in your browser - HTML5 player(in browser, HTML5)
Click here to listen with your own player(launches your MP3 player)

LTBA 010150Z 02013KT 340V040 9999 SCT013 BKN022 07/03 Q1017 NOSIG

LTBA Flight Activity (Flightaware)

Listeners: 0 out of 691 total

Istanbul Approach: 126.425
Istanbul Ground: 121.800
Istanbul Tower: 118.100

LTFJ Del/Gnd/Twr (Archives)
Istanbul, Turkey

Feed Status: UP
Listen in your browser - HTML5 player(in browser, HTML5)
Click here to listen with your own player(launches your MP3 player)

LTFJ 010150Z 03012KT 7000 BKN008 BKN022 06/04 Q1016 NOSIG

LTFJ Flight Activity (Flightaware)

Listeners: 0 out of 691 total

Gokcen Clearance Delivery: 122.625
Gokcen Ground: 121.750
Gokcen Tower: 118.800

LTFJ Pegasus Dispatch
Istanbul, Turkey

Feed Status: DOWN
Offline since: 2019-11-04 19:23:39 UTC

LTFJ 010150Z 03012KT 7000 BKN008 BKN022 06/04 Q1016 NOSIG

Pegasus Dispatch: 131.750

LUKK ACC #1 (Archives)
Chisinau, Moldova

Feed Status: UP
Listen in your browser - HTML5 player(in browser, HTML5)
Click here to listen with your own player(launches your MP3 player)

LUKK 010200Z VRB01KT CAVOK M07/M11 Q1023 R08/CLRD// NOSIG

LUKK Flight Activity (Flightaware)

Listeners: 0 out of 691 total

Chisinau ACC: 130.975

LUKK ACC #2 (Archives)
Chisinau, Moldova

Feed Status: UP
Listen in your browser - HTML5 player(in browser, HTML5)
Click here to listen with your own player(launches your MP3 player)

LUKK 010200Z VRB01KT CAVOK M07/M11 Q1023 R08/CLRD// NOSIG

LUKK Flight Activity (Flightaware)

Listeners: 0 out of 691 total

Chisinau ACC: 128.975

LUKK Air to Air (Archives)
Chisinau, Moldova

Feed Status: UP
Listen in your browser - HTML5 player(in browser, HTML5)
Click here to listen with your own player(launches your MP3 player)

LUKK 010200Z VRB01KT CAVOK M07/M11 Q1023 R08/CLRD// NOSIG

LUKK Flight Activity (Flightaware)

Listeners: 0 out of 691 total

Chisinau Air to Air: 123.450

LUKK Alternate (Archives)
Chisinau, Moldova

Feed Status: UP
Listen in your browser - HTML5 player(in browser, HTML5)
Click here to listen with your own player(launches your MP3 player)

LUKK 010200Z VRB01KT CAVOK M07/M11 Q1023 R08/CLRD// NOSIG

LUKK Flight Activity (Flightaware)

Listeners: 0 out of 691 total

Chisinau Alternate: 129.725

LUKK Approach #1
Chisinau, Moldova

Feed Status: DOWN
Offline since: 2020-02-11 03:09:41 UTC

LUKK 010200Z VRB01KT CAVOK M07/M11 Q1023 R08/CLRD// NOSIG

Chisinau Approach: 133.300

LUKK Approach #2 (Archives)
Chisinau, Moldova

Feed Status: UP
Listen in your browser - HTML5 player(in browser, HTML5)
Click here to listen with your own player(launches your MP3 player)

LUKK 010200Z VRB01KT CAVOK M07/M11 Q1023 R08/CLRD// NOSIG

LUKK Flight Activity (Flightaware)

Listeners: 0 out of 691 total

Chisinau Approach: 133.300

LUKK Emergency/Guard (Archives)
Chisinau, Moldova

Feed Status: UP
Listen in your browser - HTML5 player(in browser, HTML5)
Click here to listen with your own player(launches your MP3 player)

LUKK 010200Z VRB01KT CAVOK M07/M11 Q1023 R08/CLRD// NOSIG

LUKK Flight Activity (Flightaware)

Listeners: 0 out of 691 total

Emergency/Guard: 121.500

LUKK Ground #1
Chisinau, Moldova

Feed Status: DOWN
Offline since: 2020-02-11 03:08:23 UTC

LUKK 010200Z VRB01KT CAVOK M07/M11 Q1023 R08/CLRD// NOSIG

Chisinau Ground: 121.800

LUKK Ground #2 (Archives)
Chisinau, Moldova

Feed Status: UP
Listen in your browser - HTML5 player(in browser, HTML5)
Click here to listen with your own player(launches your MP3 player)

LUKK 010200Z VRB01KT CAVOK M07/M11 Q1023 R08/CLRD// NOSIG

LUKK Flight Activity (Flightaware)

Listeners: 0 out of 691 total

Chisinau Ground: 121.800

LUKK Handling (Archives)
Chisinau, Moldova

Feed Status: UP
Listen in your browser - HTML5 player(in browser, HTML5)
Click here to listen with your own player(launches your MP3 player)

LUKK 010200Z VRB01KT CAVOK M07/M11 Q1023 R08/CLRD// NOSIG

LUKK Flight Activity (Flightaware)

Listeners: 0 out of 691 total

Chisinau Handling: 131.700

LUKK Tower #2 (Archives)
Chisinau, Moldova

Feed Status: UP
Listen in your browser - HTML5 player(in browser, HTML5)
Click here to listen with your own player(launches your MP3 player)

LUKK 010200Z VRB01KT CAVOK M07/M11 Q1023 R08/CLRD// NOSIG

LUKK Flight Activity (Flightaware)

Listeners: 0 out of 691 total

Chisinau Tower: 118.100

LWSK ACC (Lower) (Archives)
Petrovec, Macedonia, Republic of

Feed Status: UP
Listen in your browser - HTML5 player(in browser, HTML5)
Click here to listen with your own player(launches your MP3 player)

LWSK 010200Z 00000KT 9999 -RA SCT016 OVC040 01/M01 Q1017 NOSIG

LWSK Flight Activity (Flightaware)

Listeners: 0 out of 691 total

Skopje Control (Lower): 119.375

LWSK ACC (Upper) (Archives)
Petrovec, Macedonia, Republic of

Feed Status: UP
Listen in your browser - HTML5 player(in browser, HTML5)
Click here to listen with your own player(launches your MP3 player)

LWSK 010200Z 00000KT 9999 -RA SCT016 OVC040 01/M01 Q1017 NOSIG

LWSK Flight Activity (Flightaware)

Listeners: 0 out of 691 total

Skopje Control (Upper): 120.015

LWSK Approach (Archives)
Petrovec, Macedonia, Republic of

Feed Status: UP
Listen in your browser - HTML5 player(in browser, HTML5)
Click here to listen with your own player(launches your MP3 player)

LWSK 010200Z 00000KT 9999 -RA SCT016 OVC040 01/M01 Q1017 NOSIG

LWSK Flight Activity (Flightaware)

Listeners: 0 out of 691 total

Skopje Approach/Departure: 120.300

LWSK ATIS (Archives)
Petrovec, Macedonia, Republic of

Feed Status: UP
Listen in your browser - HTML5 player(in browser, HTML5)
Click here to listen with your own player(launches your MP3 player)

LWSK 010200Z 00000KT 9999 -RA SCT016 OVC040 01/M01 Q1017 NOSIG

LWSK Flight Activity (Flightaware)

Listeners: 0 out of 691 total

Skopje ATIS: 130.125

LWSK Tower (Archives)
Petrovec, Macedonia, Republic of

Feed Status: UP
Listen in your browser - HTML5 player(in browser, HTML5)
Click here to listen with your own player(launches your MP3 player)

LWSK 010200Z 00000KT 9999 -RA SCT016 OVC040 01/M01 Q1017 NOSIG

LWSK Flight Activity (Flightaware)

Listeners: 0 out of 691 total

Skopje Tower: 118.500

LYNI Twr/App (Archives)
Nis, Serbia

Feed Status: UP
Listen in your browser - HTML5 player(in browser, HTML5)
Click here to listen with your own player(launches your MP3 player)

LYNI 010130Z 33009KT 6000 +SN SCT008 OVC025 M00/M01 Q1019 NOSIG

LYNI Flight Activity (Flightaware)

Listeners: 0 out of 691 total

Nis Approach: 119.525
Nis Approach/Tower (Alternate): 136.075
Nis Tower: 118.950

LZIB Tower
Bratislava, Slovakia

Feed Status: DOWN
Offline since: 2020-03-04 10:39:39 UTC

LZIB 010130Z 23004KT CAVOK M02/M06 Q1024

Stefanik Tower: 118.300

LZKZ Gnd/Twr/App (Archives)
Kosice, Slovakia

Feed Status: UP
Listen in your browser - HTML5 player(in browser, HTML5)
Click here to listen with your own player(launches your MP3 player)

LZKZ 010130Z 36002KT CAVOK M01/M09 Q1024

LZKZ Flight Activity (Flightaware)

Listeners: 1 out of 691 total

Kosice Approach: 129.350
Kosice Approach (backup): 119.850
Kosice Ground: 121.700
Kosice Handling: 131.850
Kosice Tower: 120.400

LZNI CTAF (Archives)
Nitra, Slovakia

Feed Status: UP
Listen in your browser - HTML5 player(in browser, HTML5)
Click here to listen with your own player(launches your MP3 player)

LZNI Flight Activity (Flightaware)

Listeners: 0 out of 691 total

Nitra Traffic Radio: 123.405

LZPE CTAF/UNICOM (Archives)
Prievidza, Slovakia

Feed Status: UP
Listen in your browser - HTML5 player(in browser, HTML5)
Click here to listen with your own player(launches your MP3 player)

LZPE Flight Activity (Flightaware)

Listeners: 0 out of 691 total

Prievidza CTAF/UNICOM: 123.055

LZPP Ground/Tower (Archives)
Piestany, Slovakia

Feed Status: UP
Listen in your browser - HTML5 player(in browser, HTML5)
Click here to listen with your own player(launches your MP3 player)

LZPP 010130Z AUTO VRB02KT 9999 NCD M05/M07 Q1024

LZPP Flight Activity (Flightaware)

Listeners: 0 out of 691 total

Piestany Ground: 121.700
Piestany Tower: 118.575

LZPT CTAF
Partizanske, Slovakia

Feed Status: DOWN
Offline since: 2020-02-23 23:33:40 UTC

Male Bielice CTAF: 123.500

UKKK Gnd/Twr/ACC
Kyiv, Ukraine

Feed Status: DOWN
Offline since: 2020-02-16 19:49:23 UTC

UKKK 010130Z 23002MPS 9999 NSC M06/M12 Q1020 R26/190060 NOSIG

Emergency/Guard: 121.500
Kyiv Radar ACC: 122.775
Kyiv Radar ACC: 124.675
Kyiv Radar ACC: 127.725
Kyiv Radar ACC: 128.175
Kyiv Radar ACC: 125.300
Kyiv Zhuliany Ground: 119.000
Kyiv Zhuliany Tower: 120.700

UMGG Control
Gomel, Belarus

Feed Status: DOWN
Offline since: 2019-12-11 18:02:40 UTC

UMGG 010100Z 20006MPS CAVOK M01/M05 Q1018 R28/CLRD// NOSIG

Minsk Control: 119.125
Minsk Control: 120.125
Minsk Control: 120.575

URKK Gnd/Twr/App (Archives)
Krasnodar, Russia

Feed Status: UP
Listen in your browser - HTML5 player(in browser, HTML5)
Click here to listen with your own player(launches your MP3 player)

URKK 010130Z 31003MPS 9000 FEW045 03/02 Q1015 R23L/CLRD70 TEMPO 0400 FG SCT002 RMK QFE757

URKK Flight Activity (Flightaware)

Listeners: 1 out of 691 total

Krasnodar Approach: 129.600
Krasnodar Ground: 119.000
Krasnodar Radar: 121.300
Krasnodar Tower: 118.200

URMT Twr/App/Control (Archives)
Stavropol, Russia

Feed Status: UP
Listen in your browser - HTML5 player(in browser, HTML5)
Click here to listen with your own player(launches your MP3 player)

URMT 010130Z 33002MPS CAVOK 05/02 Q1012 R25/150060 NOSIG RMK QFE721

URMT Flight Activity (Flightaware)

Listeners: 0 out of 691 total

Stavropol Approach: 120.300
Stavropol Control: 118.250
Stavropol Tower: 120.900

URSS Gnd/Twr/App (Archives)
Sochi, Russia

Feed Status: UP
Listen in your browser - HTML5 player(in browser, HTML5)
Click here to listen with your own player(launches your MP3 player)

URSS 010130Z 04005MPS 9999 NSC 08/03 Q1012 R02/010070 R06/010070 NOSIG RMK R06/00000MPS QFE757

URSS Flight Activity (Flightaware)

Listeners: 0 out of 691 total

Sochi Approach: 118.300
Sochi Approach: 119.700
Sochi District (Small Aircraft): 118.500
Sochi Start: 121.200
Sochi Taxi: 119.000
Sochi Tower: 124.600

USDD Gnd/Twr/App/Control (Archives)
Salekhard, Russia

Feed Status: UP
Listen in your browser - HTML5 player(in browser, HTML5)
Click here to listen with your own player(launches your MP3 player)

USDD 150530Z 05007MPS 9999 -SHRA BKN009CB 09/07 Q1002 R04/290060 NOSIG RMK QFE746/0994

USDD Flight Activity (Flightaware)

Listeners: 0 out of 691 total

Salekhard Control: 132.300
Salekhard Ground: 118.800
Salekhard Info: 125.200
Salekhard Krug: 120.800
Salekhard Tower: 118.600
Salekhard Transit: 131.700

UUDD Twr/App
Moscow, Russia

Feed Status: DOWN
Offline since: 2020-03-13 02:32:23 UTC

UUDD 010130Z 27003MPS CAVOK M10/M14 Q1010 R32L/420240 NOSIG

Domodedovo Tower: 118.600
Moscow Approach: 125.300
Moscow Approach: 127.700

UUEE Twr/App/Radar (Archives)
Moscow, Russia

Feed Status: UP
Listen in your browser - HTML5 player(in browser, HTML5)
Click here to listen with your own player(launches your MP3 player)

UUEE 010130Z 24004MPS CAVOK M09/M15 Q1009 R24L/150051 R24R/190051 NOSIG

UUEE Flight Activity (Flightaware)

Listeners: 1 out of 691 total

Sheremetyevo Radar: 118.100
Sheremetyevo Radar/Departure: 126.600
Sheremetyevo Tower: 131.500
Sheremetyevo Tower (Rwy 24R/06L): 118.700